Time,TemperatureF,DewpointF,PressureIn,WindDirection,WindDirectionDegrees,WindSpeedMPH,WindSpeedGustMPH,Humidity,HourlyPrecipIn,Conditions,Clouds,dailyrainin,SoftwareType,DateUTC
2013-07-16 00:00:00,75.0,68.0,30.23,SSE,147,2.0,4.6,79,0.00,RA,,0.00,WeatherDisplay:10.37,2013-07-16 05:00:00,
2013-07-16 00:02:00,75.0,68.4,30.23,SSE,150,1.0,2.3,80,0.00,RA,,0.00,WeatherDisplay:10.37,2013-07-16 05:02:00,
2013-07-16 00:03:00,75.0,68.4,30.24,ESE,103,0.9,1.2,80,0.00,RA,,0.00,WeatherDisplay:10.37,2013-07-16 05:03:00,
2013-07-16 00:05:00,74.9,67.9,30.24,SSE,148,0.1,1.2,79,0.00,RA,,0.00,WeatherDisplay:10.37,2013-07-16 05:05:00,
2013-07-16 00:08:00,75.0,68.0,30.24,East,88,0.2,1.2,79,0.00,RA,,0.00,WeatherDisplay:10.37,2013-07-16 05:08:00,
2013-07-16 00:10:00,74.9,67.9,30.24,SE,138,0.2,0.7,79,0.00,CLR,,0.00,WeatherDisplay:10.37,2013-07-16 05:10:00,
2013-07-16 00:13:00,74.7,67.8,30.24,SW,215,0.2,1.2,79,0.00,CLR,,0.00,WeatherDisplay:10.37,2013-07-16 05:13:00,
2013-07-16 00:14:00,74.8,67.8,30.24,SE,137,0.3,2.4,79,0.00,CLR,,0.00,WeatherDisplay:10.37,2013-07-16 05:14:00,
2013-07-16 00:16:00,74.8,67.8,30.24,SSE,168,1.6,3.5,79,0.00,CLR,,0.00,WeatherDisplay:10.37,2013-07-16 05:16:00,
2013-07-16 00:18:00,74.7,67.8,30.24,SSE,150,0.7,1.2,79,0.00,CLR,,0.00,WeatherDisplay:10.37,2013-07-16 05:18:00,
2013-07-16 00:19:00,74.8,67.8,30.23,South,179,0.6,1.2,79,0.00,CLR,,0.00,WeatherDisplay:10.37,2013-07-16 05:19:00,
2013-07-16 00:21:00,74.8,68.2,30.23,SSE,152,2.2,3.5,80,0.00,CLR,,0.00,WeatherDisplay:10.37,2013-07-16 05:21:00,
2013-07-16 00:23:00,74.7,68.1,30.23,South,188,1.3,1.3,80,0.00,CLR,,0.00,WeatherDisplay:10.37,2013-07-16 05:23:00,
2013-07-16 00:24:00,74.7,68.1,30.23,South,185,1.3,2.3,80,0.00,CLR,,0.00,WeatherDisplay:10.37,2013-07-16 05:24:00,
2013-07-16 00:26:00,74.7,68.1,30.23,South,185,0.8,2.3,80,0.00,CLR,,0.00,WeatherDisplay:10.37,2013-07-16 05:26:00,
2013-07-16 00:28:00,74.7,68.1,30.23,SSW,210,0.1,0.0,80,0.00,CLR,,0.00,WeatherDisplay:10.37,2013-07-16 05:28:00,
2013-07-16 00:29:00,74.6,68.0,30.23,SSW,210,0.0,0.0,80,0.00,CLR,,0.00,WeatherDisplay:10.37,2013-07-16 05:29:00,
2013-07-16 00:31:00,74.7,68.1,30.23,SSW,210,0.0,0.0,80,0.00,CLR,,0.00,WeatherDisplay:10.37,2013-07-16 05:31:00,
2013-07-16 00:33:00,74.7,68.1,30.23,SE,141,1.4,2.3,80,0.00,CLR,,0.00,WeatherDisplay:10.37,2013-07-16 05:33:00,
2013-07-16 00:34:00,74.7,68.1,30.23,SW,227,1.0,3.5,80,0.00,CLR,,0.00,WeatherDisplay:10.37,2013-07-16 05:34:00,
2013-07-16 00:37:00,74.7,68.1,30.23,SW,236,0.4,1.2,80,0.00,CLR,,0.00,WeatherDisplay:10.37,2013-07-16 05:37:00,
2013-07-16 00:39:00,74.6,68.0,30.23,SSW,203,0.8,1.2,80,0.00,CLR,,0.00,WeatherDisplay:10.37,2013-07-16 05:39:00,
2013-07-16 00:42:00,74.6,68.0,30.23,SE,144,1.5,2.3,80,0.00,CLR,,0.00,WeatherDisplay:10.37,2013-07-16 05:42:00,
2013-07-16 00:44:00,74.6,68.0,30.23,SSW,209,3.0,4.6,80,0.00,CLR,,0.00,WeatherDisplay:10.37,2013-07-16 05:44:00,
2013-07-16 00:47:00,74.5,67.9,30.23,SSW,202,2.1,3.5,80,0.00,CLR,,0.00,WeatherDisplay:10.37,2013-07-16 05:47:00,
2013-07-16 00:49:00,74.6,68.0,30.23,SSW,202,1.6,4.6,80,0.00,CLR,,0.00,WeatherDisplay:10.37,2013-07-16 05:49:00,
2013-07-16 00:50:00,74.5,67.9,30.23,ESE,119,1.8,3.5,80,0.00,CLR,,0.00,WeatherDisplay:10.37,2013-07-16 05:50:00,
2013-07-16 00:52:00,74.7,68.1,30.23,SSE,162,1.7,2.3,80,0.00,CLR,,0.00,WeatherDisplay:10.37,2013-07-16 05:52:00,
2013-07-16 00:54:00,74.5,67.9,30.23,SW,220,1.8,3.5,80,0.00,CLR,,0.00,WeatherDisplay:10.37,2013-07-16 05:54:00,
2013-07-16 00:55:00,74.4,67.8,30.23,SSW,205,1.6,3.5,80,0.00,CLR,,0.00,WeatherDisplay:10.37,2013-07-16 05:55:00,
2013-07-16 00:57:00,74.5,67.9,30.23,SW,215,2.6,4.6,80,0.00,CLR,,0.00,WeatherDisplay:10.37,2013-07-16 05:57:00,
2013-07-16 00:59:00,74.6,68.0,30.23,SSW,213,1.9,3.5,80,0.00,CLR,,0.00,WeatherDisplay:10.37,2013-07-16 05:59:00,
2013-07-16 01:00:00,74.4,67.8,30.23,SW,222,2.5,3.5,80,0.00,CLR,,0.00,WeatherDisplay:10.37,2013-07-16 06:00:00,
2013-07-16 01:02:00,74.4,67.8,30.23,SW,217,1.7,2.4,80,0.00,CLR,,0.00,WeatherDisplay:10.37,2013-07-16 06:02:00,
2013-07-16 01:04:00,74.4,67.8,30.23,SSW,200,1.2,2.3,80,0.00,CLR,,0.00,WeatherDisplay:10.37,2013-07-16 06:04:00,
2013-07-16 01:05:00,74.4,67.8,30.23,SW,223,1.3,2.3,80,0.00,CLR,,0.00,WeatherDisplay:10.37,2013-07-16 06:05:00,
2013-07-16 01:08:00,74.3,67.7,30.23,South,182,1.2,3.5,80,0.00,CLR,,0.00,WeatherDisplay:10.37,2013-07-16 06:08:00,
2013-07-16 01:09:00,74.3,67.7,30.23,SW,222,2.0,4.0,80,0.00,CLR,,0.00,WeatherDisplay:10.37,2013-07-16 06:09:00,
2013-07-16 01:10:00,74.4,67.8,30.23,WSW,239,1.7,4.6,80,0.00,CLR,,0.00,WeatherDisplay:10.37,2013-07-16 06:10:00,
2013-07-16 01:11:00,74.3,67.7,30.23,SSW,202,1.5,2.3,80,0.00,CLR,,0.00,WeatherDisplay:10.37,2013-07-16 06:11:00,
2013-07-16 01:13:00,74.3,67.7,30.23,SSW,210,1.2,2.3,80,0.00,CLR,,0.00,WeatherDisplay:10.37,2013-07-16 06:13:00,
2013-07-16 01:15:00,74.3,67.7,30.23,West,260,1.6,2.3,80,0.00,CLR,,0.00,WeatherDisplay:10.37,2013-07-16 06:15:00,
2013-07-16 01:16:00,74.2,67.6,30.23,SW,226,1.3,2.3,80,0.00,CLR,,0.00,WeatherDisplay:10.37,2013-07-16 06:16:00,
2013-07-16 01:18:00,74.1,67.5,30.23,SW,215,2.2,3.5,80,0.00,CLR,,0.00,WeatherDisplay:10.37,2013-07-16 06:18:00,
2013-07-16 01:20:00,74.2,67.6,30.22,SW,224,2.5,3.5,80,0.00,CLR,,0.00,WeatherDisplay:10.37,2013-07-16 06:20:00,
2013-07-16 01:21:00,74.1,67.5,30.22,SW,230,2.3,3.5,80,0.00,CLR,,0.00,WeatherDisplay:10.37,2013-07-16 06:21:00,
2013-07-16 01:22:00,74.0,67.4,30.22,SSW,209,2.4,3.5,80,0.00,CLR,,0.00,WeatherDisplay:10.37,2013-07-16 06:22:00,
2013-07-16 01:23:00,74.0,67.4,30.22,SW,229,0.9,3.5,80,0.00,CLR,,0.00,WeatherDisplay:10.37,2013-07-16 06:23:00,
2013-07-16 01:25:00,74.0,67.4,30.22,SSW,209,1.5,2.3,80,0.00,CLR,,0.00,WeatherDisplay:10.37,2013-07-16 06:25:00,
2013-07-16 01:26:00,74.0,67.4,30.22,SSW,209,1.5,2.3,80,0.00,CLR,,0.00,WeatherDisplay:10.37,2013-07-16 06:26:00,
2013-07-16 01:27:00,74.0,67.4,30.22,SE,143,1.1,1.2,80,0.00,CLR,,0.00,WeatherDisplay:10.37,2013-07-16 06:27:00,
2013-07-16 01:28:00,74.0,67.4,30.22,SW,234,0.6,1.2,80,0.00,CLR,,0.00,WeatherDisplay:10.37,2013-07-16 06:28:00,
2013-07-16 01:31:00,73.9,67.3,30.23,SSE,160,0.0,1.2,80,0.00,CLR,,0.00,WeatherDisplay:10.37,2013-07-16 06:31:00,
2013-07-16 01:32:00,73.9,67.3,30.22,SSE,168,0.6,2.3,80,0.00,CLR,,0.00,WeatherDisplay:10.37,2013-07-16 06:32:00,
2013-07-16 01:33:00,73.9,67.3,30.22,SSE,168,0.0,1.2,80,0.00,CLR,,0.00,WeatherDisplay:10.37,2013-07-16 06:33:00,
2013-07-16 01:36:00,73.8,67.2,30.23,SSE,168,0.0,0.0,80,0.00,CLR,,0.00,WeatherDisplay:10.37,2013-07-16 06:36:00,
2013-07-16 01:37:00,73.7,67.1,30.22,SSE,168,0.0,0.0,80,0.00,CLR,,0.00,WeatherDisplay:10.37,2013-07-16 06:37:00,
2013-07-16 01:38:00,73.7,67.1,30.22,SSE,168,0.0,0.0,80,0.00,CLR,,0.00,WeatherDisplay:10.37,2013-07-16 06:38:00,
2013-07-16 01:41:00,73.7,67.1,30.22,SSE,168,0.0,0.0,80,0.00,CLR,,0.00,WeatherDisplay:10.37,2013-07-16 06:41:00,
2013-07-16 01:42:00,73.7,67.1,30.22,South,172,0.8,0.8,80,0.00,CLR,,0.00,WeatherDisplay:10.37,2013-07-16 06:42:00,
2013-07-16 01:44:00,73.6,67.0,30.22,SSW,196,1.6,3.5,80,0.00,CLR,,0.00,WeatherDisplay:10.37,2013-07-16 06:44:00,
2013-07-16 01:46:00,73.6,67.4,30.22,SSW,196,0.0,0.0,81,0.00,CLR,,0.00,WeatherDisplay:10.37,2013-07-16 06:46:00,
2013-07-16 01:47:00,73.4,67.2,30.22,SSW,196,0.0,0.0,81,0.00,CLR,,0.00,WeatherDisplay:10.37,2013-07-16 06:47:00,
2013-07-16 01:48:00,73.5,67.3,30.22,SSW,196,0.0,0.0,81,0.00,CLR,,0.00,WeatherDisplay:10.37,2013-07-16 06:48:00,
2013-07-16 01:49:00,73.5,67.3,30.22,SSW,196,0.0,0.0,81,0.00,CLR,,0.00,WeatherDisplay:10.37,2013-07-16 06:49:00,
2013-07-16 01:51:00,73.4,67.2,30.22,SSW,196,0.0,0.0,81,0.00,CLR,,0.00,WeatherDisplay:10.37,2013-07-16 06:51:00,
2013-07-16 01:53:00,73.5,67.3,30.22,SSW,196,0.0,0.0,81,0.00,CLR,,0.00,WeatherDisplay:10.37,2013-07-16 06:53:00,
2013-07-16 01:54:00,73.5,67.3,30.23,SSW,196,0.0,0.0,81,0.00,CLR,,0.00,WeatherDisplay:10.37,2013-07-16 06:54:00,
2013-07-16 01:56:00,73.2,67.0,30.23,SSW,196,0.0,0.0,81,0.00,CLR,,0.00,WeatherDisplay:10.37,2013-07-16 06:56:00,
2013-07-16 01:57:00,73.3,67.1,30.23,SSW,196,0.0,0.0,81,0.00,CLR,,0.00,WeatherDisplay:10.37,2013-07-16 06:57:00,
2013-07-16 01:58:00,73.3,67.1,30.23,SSW,196,0.0,0.0,81,0.00,CLR,,0.00,WeatherDisplay:10.37,2013-07-16 06:58:00,
2013-07-16 01:59:00,73.4,67.2,30.23,SSW,196,0.0,0.0,81,0.00,CLR,,0.00,WeatherDisplay:10.37,2013-07-16 06:59:00,
2013-07-16 02:02:00,73.3,67.1,30.23,SSW,196,0.0,0.0,81,0.00,CLR,,0.00,WeatherDisplay:10.37,2013-07-16 07:02:00,
2013-07-16 02:03:00,73.1,66.9,30.23,SSW,196,0.0,0.0,81,0.00,CLR,,0.00,WeatherDisplay:10.37,2013-07-16 07:03:00,
2013-07-16 02:04:00,73.2,67.0,30.23,SSW,196,0.0,0.0,81,0.00,CLR,,0.00,WeatherDisplay:10.37,2013-07-16 07:04:00,
2013-07-16 02:07:00,73.3,67.5,30.23,SSW,196,0.0,0.0,82,0.00,CLR,,0.00,WeatherDisplay:10.37,2013-07-16 07:07:00,
2013-07-16 02:08:00,73.0,67.2,30.23,SSW,196,0.0,0.0,82,0.00,CLR,,0.00,WeatherDisplay:10.37,2013-07-16 07:08:00,
2013-07-16 02:09:00,73.2,67.4,30.23,SSW,196,0.0,0.0,82,0.00,CLR,,0.00,WeatherDisplay:10.37,2013-07-16 07:09:00,
2013-07-16 02:12:00,73.2,67.4,30.23,SSW,196,0.0,0.0,82,0.00,CLR,,0.00,WeatherDisplay:10.37,2013-07-16 07:12:00,
2013-07-16 02:13:00,73.2,67.4,30.23,SSW,196,0.0,0.0,82,0.00,CLR,,0.00,WeatherDisplay:10.37,2013-07-16 07:13:00,
2013-07-16 02:14:00,73.2,67.4,30.23,SSW,196,0.0,0.0,82,0.00,CLR,,0.00,WeatherDisplay:10.37,2013-07-16 07:14:00,
2013-07-16 02:17:00,73.1,67.3,30.23,SSW,196,0.0,0.0,82,0.00,CLR,,0.00,WeatherDisplay:10.37,2013-07-16 07:17:00,
2013-07-16 02:18:00,73.2,67.4,30.23,SSW,196,0.0,0.0,82,0.00,CLR,,0.00,WeatherDisplay:10.37,2013-07-16 07:18:00,
2013-07-16 02:19:00,73.2,67.4,30.23,SSW,196,0.0,0.0,82,0.00,CLR,,0.00,WeatherDisplay:10.37,2013-07-16 07:19:00,
2013-07-16 02:20:00,73.2,67.4,30.23,SSW,196,0.0,0.0,82,0.00,CLR,,0.00,WeatherDisplay:10.37,2013-07-16 07:20:00,
2013-07-16 02:22:00,73.0,67.2,30.23,SSW,196,0.0,0.0,82,0.00,CLR,,0.00,WeatherDisplay:10.37,2013-07-16 07:22:00,
2013-07-16 02:23:00,73.1,67.3,30.23,SSW,196,0.0,0.0,82,0.00,CLR,,0.00,WeatherDisplay:10.37,2013-07-16 07:23:00,
2013-07-16 02:24:00,73.1,67.3,30.23,SSW,196,0.0,0.0,82,0.00,CLR,,0.00,WeatherDisplay:10.37,2013-07-16 07:24:00,
2013-07-16 02:25:00,73.0,67.2,30.23,SSW,196,0.0,0.0,82,0.00,CLR,,0.00,WeatherDisplay:10.37,2013-07-16 07:25:00,
2013-07-16 02:27:00,72.9,67.1,30.23,SSW,196,0.0,0.0,82,0.00,CLR,,0.00,WeatherDisplay:10.37,2013-07-16 07:27:00,
2013-07-16 02:28:00,72.9,67.1,30.23,SSW,196,0.0,0.0,82,0.00,CLR,,0.00,WeatherDisplay:10.37,2013-07-16 07:28:00,
2013-07-16 02:30:00,72.9,67.1,30.23,SSW,196,0.0,0.0,82,0.00,CLR,,0.00,WeatherDisplay:10.37,2013-07-16 07:30:00,
2013-07-16 02:32:00,72.9,67.1,30.23,SSW,196,0.0,0.0,82,0.00,CLR,,0.00,WeatherDisplay:10.37,2013-07-16 07:32:00,
2013-07-16 02:33:00,72.7,66.9,30.23,SSW,196,0.0,0.0,82,0.00,CLR,,0.00,WeatherDisplay:10.37,2013-07-16 07:33:00,
2013-07-16 02:34:00,72.7,66.9,30.23,SSW,196,0.0,0.0,82,0.00,CLR,,0.00,WeatherDisplay:10.37,2013-07-16 07:34:00,
2013-07-16 02:35:00,72.6,66.8,30.23,SSW,196,0.0,0.0,82,0.00,CLR,,0.00,WeatherDisplay:10.37,2013-07-16 07:35:00,
2013-07-16 02:38:00,72.6,66.8,30.23,SSW,196,0.0,0.0,82,0.00,CLR,,0.00,WeatherDisplay:10.37,2013-07-16 07:38:00,
2013-07-16 02:39:00,72.8,67.0,30.23,SSW,196,0.0,0.0,82,0.00,CLR,,0.00,WeatherDisplay:10.37,2013-07-16 07:39:00,
2013-07-16 02:40:00,72.5,66.7,30.23,SSW,196,0.0,0.0,82,0.00,CLR,,0.00,WeatherDisplay:10.37,2013-07-16 07:40:00,
2013-07-16 02:43:00,72.4,66.6,30.23,SSW,196,0.0,0.0,82,0.00,CLR,,0.00,WeatherDisplay:10.37,2013-07-16 07:43:00,
2013-07-16 02:44:00,72.5,66.7,30.23,SSW,196,0.0,0.0,82,0.00,CLR,,0.00,WeatherDisplay:10.37,2013-07-16 07:44:00,
2013-07-16 02:45:00,72.3,66.1,30.23,SSW,196,0.0,0.0,81,0.00,CLR,,0.00,WeatherDisplay:10.37,2013-07-16 07:45:00,
2013-07-16 02:48:00,72.3,66.5,30.23,SSW,196,0.0,0.0,82,0.00,CLR,,0.00,WeatherDisplay:10.37,2013-07-16 07:48:00,
2013-07-16 02:49:00,72.2,66.4,30.23,SSW,196,0.0,0.0,82,0.00,CLR,,0.00,WeatherDisplay:10.37,2013-07-16 07:49:00,
2013-07-16 02:50:00,72.1,66.3,30.23,SSW,196,0.0,0.0,82,0.00,CLR,,0.00,WeatherDisplay:10.37,2013-07-16 07:50:00,
2013-07-16 02:51:00,72.1,66.3,30.23,SSW,196,0.0,0.0,82,0.00,CLR,,0.00,WeatherDisplay:10.37,2013-07-16 07:51:00,
2013-07-16 02:53:00,72.0,66.2,30.23,SSW,196,0.0,0.0,82,0.00,CLR,,0.00,WeatherDisplay:10.37,2013-07-16 07:53:00,
2013-07-16 02:54:00,72.0,66.2,30.23,SSW,196,0.0,0.0,82,0.00,CLR,,0.00,WeatherDisplay:10.37,2013-07-16 07:54:00,
2013-07-16 02:56:00,72.0,66.2,30.23,SSW,196,0.0,0.0,82,0.00,CLR,,0.00,WeatherDisplay:10.37,2013-07-16 07:56:00,
2013-07-16 02:58:00,71.8,66.0,30.23,SSW,196,0.0,0.0,82,0.00,CLR,,0.00,WeatherDisplay:10.37,2013-07-16 07:58:00,
2013-07-16 02:59:00,71.9,66.1,30.23,SSW,196,0.0,0.0,82,0.00,CLR,,0.00,WeatherDisplay:10.37,2013-07-16 07:59:00,
2013-07-16 03:00:00,71.8,66.0,30.23,SSW,196,0.0,0.0,82,0.00,CLR,,0.00,WeatherDisplay:10.37,2013-07-16 08:00:00,
2013-07-16 03:01:00,71.8,66.0,30.23,SSW,196,0.0,0.0,82,0.00,CLR,,0.00,WeatherDisplay:10.37,2013-07-16 08:01:00,
2013-07-16 03:04:00,71.7,65.6,30.23,SSW,196,0.0,0.0,81,0.00,CLR,,0.00,WeatherDisplay:10.37,2013-07-16 08:04:00,
2013-07-16 03:05:00,71.7,65.6,30.23,SSW,196,0.0,0.0,81,0.00,CLR,,0.00,WeatherDisplay:10.37,2013-07-16 08:05:00,
2013-07-16 03:06:00,71.7,65.6,30.23,SSW,196,0.0,0.0,81,0.00,CLR,,0.00,WeatherDisplay:10.37,2013-07-16 08:06:00,
2013-07-16 03:09:00,71.6,65.5,30.23,SSW,196,0.0,0.0,81,0.00,CLR,,0.00,WeatherDisplay:10.37,2013-07-16 08:09:00,
2013-07-16 03:10:00,71.4,65.3,30.23,SSW,196,0.0,0.0,81,0.00,CLR,,0.00,WeatherDisplay:10.37,2013-07-16 08:10:00,
2013-07-16 03:11:00,71.5,65.4,30.23,SSW,196,0.0,0.0,81,0.00,CLR,,0.00,WeatherDisplay:10.37,2013-07-16 08:11:00,
2013-07-16 03:12:00,71.4,65.3,30.23,SSW,196,0.0,0.0,81,0.00,CLR,,0.00,WeatherDisplay:10.37,2013-07-16 08:12:00,
2013-07-16 03:15:00,71.3,65.2,30.23,SSW,196,0.0,0.0,81,0.00,CLR,,0.00,WeatherDisplay:10.37,2013-07-16 08:15:00,
2013-07-16 03:16:00,71.4,65.3,30.23,SSW,196,0.0,0.0,81,0.00,CLR,,0.00,WeatherDisplay:10.37,2013-07-16 08:16:00,
2013-07-16 03:17:00,71.3,65.2,30.23,SSW,196,0.0,0.0,81,0.00,CLR,,0.00,WeatherDisplay:10.37,2013-07-16 08:17:00,
2013-07-16 03:20:00,71.2,65.4,30.23,SSW,196,0.0,0.0,82,0.00,CLR,,0.00,WeatherDisplay:10.37,2013-07-16 08:20:00,
2013-07-16 03:21:00,71.2,65.4,30.23,SSW,196,0.0,0.0,82,0.00,CLR,,0.00,WeatherDisplay:10.37,2013-07-16 08:21:00,
2013-07-16 03:22:00,71.3,65.5,30.23,SSW,196,0.0,0.0,82,0.00,CLR,,0.00,WeatherDisplay:10.37,2013-07-16 08:22:00,
2013-07-16 03:25:00,71.1,65.3,30.23,SSW,196,0.0,0.0,82,0.00,CLR,,0.00,WeatherDisplay:10.37,2013-07-16 08:25:00,
2013-07-16 03:26:00,71.3,65.5,30.23,SSW,196,0.0,0.0,82,0.00,CLR,,0.00,WeatherDisplay:10.37,2013-07-16 08:26:00,
2013-07-16 03:27:00,71.1,65.3,30.23,SSW,196,0.0,0.0,82,0.00,CLR,,0.00,WeatherDisplay:10.37,2013-07-16 08:27:00,
2013-07-16 03:30:00,71.3,65.9,30.23,SSW,196,0.0,0.0,83,0.00,CLR,,0.00,WeatherDisplay:10.37,2013-07-16 08:30:00,
2013-07-16 03:31:00,71.2,65.8,30.23,SSW,196,0.0,0.0,83,0.00,CLR,,0.00,WeatherDisplay:10.37,2013-07-16 08:31:00,
2013-07-16 03:32:00,71.3,65.9,30.23,SSW,196,0.0,0.0,83,0.00,CLR,,0.00,WeatherDisplay:10.37,2013-07-16 08:32:00,
2013-07-16 03:36:00,71.3,65.9,30.23,SSW,196,0.0,0.0,83,0.00,CLR,,0.00,WeatherDisplay:10.37,2013-07-16 08:36:00,
2013-07-16 03:38:00,71.2,65.8,30.23,SSW,196,0.0,0.0,83,0.00,CLR,,0.00,WeatherDisplay:10.37,2013-07-16 08:38:00,
2013-07-16 03:41:00,71.2,65.8,30.23,SSW,196,0.0,0.0,83,0.00,CLR,,0.00,WeatherDisplay:10.37,2013-07-16 08:41:00,
2013-07-16 03:43:00,71.1,65.7,30.23,SSW,196,0.0,0.0,83,0.00,CLR,,0.00,WeatherDisplay:10.37,2013-07-16 08:43:00,
2013-07-16 03:46:00,71.1,65.7,30.23,SSW,196,0.0,0.0,83,0.00,CLR,,0.00,WeatherDisplay:10.37,2013-07-16 08:46:00,
2013-07-16 03:47:00,71.0,65.6,30.23,SSW,196,0.0,0.0,83,0.00,CLR,,0.00,WeatherDisplay:10.37,2013-07-16 08:47:00,
2013-07-16 03:48:00,71.1,65.7,30.23,SSW,196,0.0,0.0,83,0.00,CLR,,0.00,WeatherDisplay:10.37,2013-07-16 08:48:00,
2013-07-16 03:49:00,71.0,65.6,30.23,SSW,196,0.0,0.0,83,0.00,CLR,,0.00,WeatherDisplay:10.37,2013-07-16 08:49:00,
2013-07-16 03:51:00,70.8,65.4,30.23,SSW,196,0.0,0.0,83,0.00,CLR,,0.00,WeatherDisplay:10.37,2013-07-16 08:51:00,
2013-07-16 03:52:00,71.0,65.6,30.23,SSW,196,0.0,0.0,83,0.00,CLR,,0.00,WeatherDisplay:10.37,2013-07-16 08:52:00,
2013-07-16 03:53:00,71.0,65.6,30.23,SSW,196,0.0,0.0,83,0.00,CLR,,0.00,WeatherDisplay:10.37,2013-07-16 08:53:00,
2013-07-16 03:54:00,70.9,65.5,30.23,SSW,196,0.0,0.0,83,0.00,CLR,,0.00,WeatherDisplay:10.37,2013-07-16 08:54:00,
2013-07-16 03:56:00,70.8,65.4,30.23,SSW,196,0.0,0.0,83,0.00,CLR,,0.00,WeatherDisplay:10.37,2013-07-16 08:56:00,
2013-07-16 03:57:00,70.9,65.5,30.23,SSW,196,0.0,0.0,83,0.00,CLR,,0.00,WeatherDisplay:10.37,2013-07-16 08:57:00,
2013-07-16 03:58:00,70.8,65.4,30.23,SSW,196,0.0,0.0,83,0.00,CLR,,0.00,WeatherDisplay:10.37,2013-07-16 08:58:00,
2013-07-16 03:59:00,70.9,65.5,30.23,SSW,196,0.0,0.0,83,0.00,CLR,,0.00,WeatherDisplay:10.37,2013-07-16 08:59:00,
2013-07-16 04:02:00,70.8,65.4,30.24,SSW,196,0.0,0.0,83,0.00,CLR,,0.00,WeatherDisplay:10.37,2013-07-16 09:02:00,
2013-07-16 04:03:00,70.9,65.5,30.23,SSW,196,0.0,0.0,83,0.00,CLR,,0.00,WeatherDisplay:10.37,2013-07-16 09:03:00,
2013-07-16 04:04:00,70.8,65.4,30.23,SSW,196,0.0,0.0,83,0.00,CLR,,0.00,WeatherDisplay:10.37,2013-07-16 09:04:00,
2013-07-16 04:07:00,70.8,65.4,30.24,SSW,196,0.0,0.0,83,0.00,CLR,,0.00,WeatherDisplay:10.37,2013-07-16 09:07:00,
2013-07-16 04:09:00,70.8,65.7,30.24,SSW,196,0.0,0.0,84,0.00,CLR,,0.00,WeatherDisplay:10.37,2013-07-16 09:09:00,
2013-07-16 04:12:00,70.8,65.7,30.24,SSW,196,0.0,0.0,84,0.00,CLR,,0.00,WeatherDisplay:10.37,2013-07-16 09:12:00,
2013-07-16 04:14:00,70.9,65.8,30.24,SSW,196,0.0,0.0,84,0.00,CLR,,0.00,WeatherDisplay:10.37,2013-07-16 09:14:00,
2013-07-16 04:17:00,70.6,65.5,30.24,SSW,196,0.0,0.0,84,0.00,CLR,,0.00,WeatherDisplay:10.37,2013-07-16 09:17:00,
2013-07-16 04:19:00,70.7,65.6,30.24,SSW,196,0.0,0.0,84,0.00,CLR,,0.00,WeatherDisplay:10.37,2013-07-16 09:19:00,
2013-07-16 04:20:00,70.8,65.7,30.24,SSW,196,0.0,0.0,84,0.00,CLR,,0.00,WeatherDisplay:10.37,2013-07-16 09:20:00,
2013-07-16 04:22:00,70.6,65.5,30.24,SSW,196,0.0,0.0,84,0.00,CLR,,0.00,WeatherDisplay:10.37,2013-07-16 09:22:00,
2013-07-16 04:23:00,70.7,65.6,30.24,SSW,196,0.0,0.0,84,0.00,CLR,,0.00,WeatherDisplay:10.37,2013-07-16 09:23:00,
2013-07-16 04:24:00,70.7,65.6,30.24,SSW,196,0.0,0.0,84,0.00,CLR,,0.00,WeatherDisplay:10.37,2013-07-16 09:24:00,
2013-07-16 04:25:00,70.6,65.5,30.24,SSW,196,0.0,0.0,84,0.00,CLR,,0.00,WeatherDisplay:10.37,2013-07-16 09:25:00,
2013-07-16 04:27:00,70.6,65.2,30.24,SSW,196,0.0,0.0,83,0.00,CLR,,0.00,WeatherDisplay:10.37,2013-07-16 09:27:00,
2013-07-16 04:28:00,70.6,65.2,30.24,SSW,196,0.0,0.0,83,0.00,CLR,,0.00,WeatherDisplay:10.37,2013-07-16 09:28:00,
2013-07-16 04:30:00,70.4,65.0,30.24,SSW,196,0.0,0.0,83,0.00,CLR,,0.00,WeatherDisplay:10.37,2013-07-16 09:30:00,
2013-07-16 04:31:00,70.5,65.1,30.24,SSW,196,0.0,0.0,83,0.00,CLR,,0.00,WeatherDisplay:10.37,2013-07-16 09:31:00,
2013-07-16 04:33:00,70.5,65.1,30.23,SSW,196,0.0,0.0,83,0.00,CLR,,0.00,WeatherDisplay:10.37,2013-07-16 09:33:00,
2013-07-16 04:34:00,70.5,65.1,30.24,SSW,196,0.0,0.0,83,0.00,CLR,,0.00,WeatherDisplay:10.37,2013-07-16 09:34:00,
2013-07-16 04:35:00,70.3,64.9,30.23,SSW,196,0.0,0.0,83,0.00,CLR,,0.00,WeatherDisplay:10.37,2013-07-16 09:35:00,
2013-07-16 04:36:00,70.3,64.9,30.23,SSW,196,0.0,0.0,83,0.00,CLR,,0.00,WeatherDisplay:10.37,2013-07-16 09:36:00,
2013-07-16 04:38:00,70.4,65.0,30.24,SSW,196,0.0,0.0,83,0.00,CLR,,0.00,WeatherDisplay:10.37,2013-07-16 09:38:00,
2013-07-16 04:39:00,70.5,65.1,30.23,SSW,196,0.0,0.0,83,0.00,CLR,,0.00,WeatherDisplay:10.37,2013-07-16 09:39:00,
2013-07-16 04:40:00,70.4,65.0,30.23,SSW,196,0.0,0.0,83,0.00,CLR,,0.00,WeatherDisplay:10.37,2013-07-16 09:40:00,
2013-07-16 04:41:00,70.2,65.1,30.24,SSW,196,0.0,0.0,84,0.00,CLR,,0.00,WeatherDisplay:10.37,2013-07-16 09:41:00,
2013-07-16 04:43:00,70.5,65.4,30.24,SSW,196,0.0,0.0,84,0.00,CLR,,0.00,WeatherDisplay:10.37,2013-07-16 09:43:00,
2013-07-16 04:44:00,70.5,65.4,30.24,SSW,196,0.0,0.0,84,0.00,CLR,,0.00,WeatherDisplay:10.37,2013-07-16 09:44:00,
2013-07-16 04:45:00,70.5,65.4,30.24,SSW,196,0.0,0.0,84,0.00,CLR,,0.00,WeatherDisplay:10.37,2013-07-16 09:45:00,
2013-07-16 04:47:00,70.4,65.3,30.24,SSW,196,0.0,0.0,84,0.00,CLR,,0.00,WeatherDisplay:10.37,2013-07-16 09:47:00,
2013-07-16 04:49:00,70.4,65.3,30.24,SSW,196,0.0,0.0,84,0.00,CLR,,0.00,WeatherDisplay:10.37,2013-07-16 09:49:00,
2013-07-16 04:50:00,70.4,65.3,30.24,SSW,196,0.0,0.0,84,0.00,CLR,,0.00,WeatherDisplay:10.37,2013-07-16 09:50:00,
2013-07-16 04:52:00,70.4,65.3,30.24,SSW,196,0.0,0.0,84,0.00,CLR,,0.00,WeatherDisplay:10.37,2013-07-16 09:52:00,
2013-07-16 04:54:00,70.2,65.1,30.24,SSW,196,0.0,0.0,84,0.00,CLR,,0.00,WeatherDisplay:10.37,2013-07-16 09:54:00,
2013-07-16 04:55:00,70.3,65.2,30.24,SSW,196,0.0,0.0,84,0.00,CLR,,0.00,WeatherDisplay:10.37,2013-07-16 09:55:00,
2013-07-16 04:57:00,70.2,65.1,30.24,SSW,196,0.0,0.0,84,0.00,CLR,,0.00,WeatherDisplay:10.37,2013-07-16 09:57:00,
2013-07-16 04:59:00,70.2,64.8,30.23,SSW,196,0.0,0.0,83,0.00,CLR,,0.00,WeatherDisplay:10.37,2013-07-16 09:59:00,
2013-07-16 05:00:00,70.2,64.8,30.23,SSW,196,0.0,0.0,83,0.00,CLR,,0.00,WeatherDisplay:10.37,2013-07-16 10:00:00,
2013-07-16 05:02:00,70.2,65.1,30.24,SSW,196,0.0,0.0,84,0.00,CLR,,0.00,WeatherDisplay:10.37,2013-07-16 10:02:00,
2013-07-16 05:04:00,70.1,65.0,30.24,SSW,196,0.0,0.0,84,0.00,CLR,,0.00,WeatherDisplay:10.37,2013-07-16 10:04:00,
2013-07-16 05:05:00,70.1,65.0,30.24,SSW,196,0.0,0.0,84,0.00,CLR,,0.00,WeatherDisplay:10.37,2013-07-16 10:05:00,
2013-07-16 05:07:00,70.1,64.7,30.24,SSW,196,0.0,0.0,83,0.00,CLR,,0.00,WeatherDisplay:10.37,2013-07-16 10:07:00,
2013-07-16 05:09:00,70.1,64.7,30.24,SSW,196,0.0,0.0,83,0.00,CLR,,0.00,WeatherDisplay:10.37,2013-07-16 10:09:00,
2013-07-16 05:10:00,70.1,64.7,30.24,SSW,196,0.0,0.0,83,0.00,CLR,,0.00,WeatherDisplay:10.37,2013-07-16 10:10:00,
2013-07-16 05:11:00,70.1,65.0,30.24,SSW,196,0.0,0.0,84,0.00,CLR,,0.00,WeatherDisplay:10.37,2013-07-16 10:11:00,
2013-07-16 05:13:00,69.9,64.5,30.24,SSW,196,0.0,0.0,83,0.00,CLR,,0.00,WeatherDisplay:10.37,2013-07-16 10:13:00,
2013-07-16 05:14:00,69.9,64.5,30.24,SSW,196,0.0,0.0,83,0.00,CLR,,0.00,WeatherDisplay:10.37,2013-07-16 10:14:00,
2013-07-16 05:15:00,70.0,64.6,30.24,SSW,196,0.0,0.0,83,0.00,CLR,,0.00,WeatherDisplay:10.37,2013-07-16 10:15:00,
2013-07-16 05:16:00,70.0,64.6,30.24,SSW,196,0.0,0.0,83,0.00,CLR,,0.00,WeatherDisplay:10.37,2013-07-16 10:16:00,
2013-07-16 05:18:00,69.9,64.5,30.24,SSW,196,0.0,0.0,83,0.00,CLR,,0.00,WeatherDisplay:10.37,2013-07-16 10:18:00,
2013-07-16 05:20:00,69.9,64.5,30.24,SSW,196,0.0,0.0,83,0.00,CLR,,0.00,WeatherDisplay:10.37,2013-07-16 10:20:00,
2013-07-16 05:21:00,69.8,64.4,30.24,SSW,196,0.0,0.0,83,0.00,CLR,,0.00,WeatherDisplay:10.37,2013-07-16 10:21:00,
2013-07-16 05:23:00,69.9,64.5,30.24,SSW,196,0.0,0.0,83,0.00,CLR,,0.00,WeatherDisplay:10.37,2013-07-16 10:23:00,
2013-07-16 05:25:00,69.8,64.4,30.24,SSW,196,0.0,0.0,83,0.00,CLR,,0.00,WeatherDisplay:10.37,2013-07-16 10:25:00,
2013-07-16 05:26:00,69.8,64.4,30.24,SSW,196,0.0,0.0,83,0.00,CLR,,0.00,WeatherDisplay:10.37,2013-07-16 10:26:00,
2013-07-16 05:28:00,69.9,64.5,30.24,SSW,196,0.0,0.0,83,0.00,CLR,,0.00,WeatherDisplay:10.37,2013-07-16 10:28:00,
2013-07-16 05:30:00,69.7,64.3,30.24,SSW,196,0.0,0.0,83,0.00,CLR,,0.00,WeatherDisplay:10.37,2013-07-16 10:30:00,
2013-07-16 05:31:00,69.7,64.3,30.24,SSW,196,0.0,0.0,83,0.00,CLR,,0.00,WeatherDisplay:10.37,2013-07-16 10:31:00,
2013-07-16 05:33:00,69.8,64.4,30.24,SSW,196,0.0,0.0,83,0.00,CLR,,0.00,WeatherDisplay:10.37,2013-07-16 10:33:00,
2013-07-16 05:35:00,69.6,64.2,30.24,SSW,196,0.0,0.0,83,0.00,CLR,,0.00,WeatherDisplay:10.37,2013-07-16 10:35:00,
2013-07-16 05:36:00,69.8,64.7,30.25,SSW,196,0.0,0.0,84,0.00,CLR,,0.00,WeatherDisplay:10.37,2013-07-16 10:36:00,
2013-07-16 05:38:00,69.8,64.7,30.25,SSW,196,0.0,0.0,84,0.00,CLR,,0.00,WeatherDisplay:10.37,2013-07-16 10:38:00,
2013-07-16 05:41:00,69.7,64.6,30.24,SSW,196,0.0,0.0,84,0.00,CLR,,0.00,WeatherDisplay:10.37,2013-07-16 10:41:00,
2013-07-16 05:43:00,69.7,64.6,30.24,SSW,196,0.0,0.0,84,0.00,CLR,,0.00,WeatherDisplay:10.37,2013-07-16 10:43:00,
2013-07-16 05:46:00,69.8,64.7,30.25,SSW,196,0.0,0.0,84,0.00,CLR,,0.00,WeatherDisplay:10.37,2013-07-16 10:46:00,
2013-07-16 05:49:00,69.8,64.7,30.24,SSW,196,0.0,0.0,84,0.00,CLR,,0.00,WeatherDisplay:10.37,2013-07-16 10:49:00,
2013-07-16 05:51:00,69.7,64.6,30.25,SSW,196,0.0,0.0,84,0.00,CLR,,0.00,WeatherDisplay:10.37,2013-07-16 10:51:00,
2013-07-16 05:52:00,69.6,64.5,30.25,SSW,196,0.0,0.0,84,0.00,CLR,,0.00,WeatherDisplay:10.37,2013-07-16 10:52:00,
2013-07-16 05:54:00,69.8,64.7,30.25,SSW,196,0.0,0.0,84,0.00,CLR,,0.00,WeatherDisplay:10.37,2013-07-16 10:54:00,
2013-07-16 05:56:00,69.8,64.7,30.25,SSW,196,0.0,0.0,84,0.00,CLR,,0.00,WeatherDisplay:10.37,2013-07-16 10:56:00,
2013-07-16 05:57:00,69.7,64.6,30.25,SSW,196,0.0,0.0,84,0.00,CLR,,0.00,WeatherDisplay:10.37,2013-07-16 10:57:00,
2013-07-16 05:59:00,69.7,64.6,30.25,SSW,196,0.0,0.0,84,0.00,CLR,,0.00,WeatherDisplay:10.37,2013-07-16 10:59:00,
2013-07-16 06:01:00,69.7,64.6,30.25,SSW,196,0.0,0.0,84,0.00,CLR,,0.00,WeatherDisplay:10.37,2013-07-16 11:01:00,
2013-07-16 06:02:00,69.7,64.6,30.25,SSW,196,0.0,0.0,84,0.00,CLR,,0.00,WeatherDisplay:10.37,2013-07-16 11:02:00,
2013-07-16 06:04:00,69.8,64.7,30.25,SSW,196,0.0,0.0,84,0.00,CLR,,0.00,WeatherDisplay:10.37,2013-07-16 11:04:00,
2013-07-16 06:06:00,69.8,64.7,30.25,SSW,196,0.0,0.0,84,0.00,CLR,,0.00,WeatherDisplay:10.37,2013-07-16 11:06:00,
2013-07-16 06:07:00,69.9,64.8,30.25,SSW,196,0.0,0.0,84,0.00,CLR,,0.00,WeatherDisplay:10.37,2013-07-16 11:07:00,
2013-07-16 06:08:00,69.9,64.8,30.25,SSW,196,0.0,0.0,84,0.00,CLR,,0.00,WeatherDisplay:10.37,2013-07-16 11:08:00,
2013-07-16 06:09:00,70.0,65.3,30.25,SSW,196,0.0,0.0,85,0.00,CLR,,0.00,WeatherDisplay:10.37,2013-07-16 11:09:00,
2013-07-16 06:11:00,70.0,65.3,30.25,SSW,196,0.0,0.0,85,0.00,CLR,,0.00,WeatherDisplay:10.37,2013-07-16 11:11:00,
2013-07-16 06:12:00,69.9,65.2,30.25,SSW,196,0.0,0.0,85,0.00,CLR,,0.00,WeatherDisplay:10.37,2013-07-16 11:12:00,
2013-07-16 06:13:00,70.0,65.3,30.25,SSW,196,0.0,0.0,85,0.00,CLR,,0.00,WeatherDisplay:10.37,2013-07-16 11:13:00,
2013-07-16 06:14:00,70.2,65.5,30.25,SSW,196,0.0,0.0,85,0.00,CLR,,0.00,WeatherDisplay:10.37,2013-07-16 11:14:00,
2013-07-16 06:16:00,70.2,65.5,30.25,SSW,196,0.0,0.0,85,0.00,CLR,,0.00,WeatherDisplay:10.37,2013-07-16 11:16:00,
2013-07-16 06:17:00,70.1,65.4,30.25,SSW,196,0.0,0.0,85,0.00,CLR,,0.00,WeatherDisplay:10.37,2013-07-16 11:17:00,
2013-07-16 06:18:00,70.3,65.6,30.25,SSW,196,0.0,0.0,85,0.00,CLR,,0.00,WeatherDisplay:10.37,2013-07-16 11:18:00,
2013-07-16 06:19:00,70.4,65.7,30.25,SSW,196,0.0,0.0,85,0.00,CLR,,0.00,WeatherDisplay:10.37,2013-07-16 11:19:00,
2013-07-16 06:22:00,70.4,65.7,30.25,SSW,196,0.0,0.0,85,0.00,CLR,,0.00,WeatherDisplay:10.37,2013-07-16 11:22:00,
2013-07-16 06:23:00,70.5,65.8,30.25,SSW,196,0.0,0.0,85,0.00,CLR,,0.00,WeatherDisplay:10.37,2013-07-16 11:23:00,
2013-07-16 06:25:00,70.5,65.8,30.25,SSW,196,0.0,0.0,85,0.00,CLR,,0.00,WeatherDisplay:10.37,2013-07-16 11:25:00,
2013-07-16 06:27:00,70.7,66.3,30.25,SSW,196,0.0,0.0,86,0.00,CLR,,0.00,WeatherDisplay:10.37,2013-07-16 11:27:00,
2013-07-16 06:28:00,70.6,66.2,30.25,SSW,196,0.0,0.0,86,0.00,CLR,,0.00,WeatherDisplay:10.37,2013-07-16 11:28:00,
2013-07-16 06:30:00,70.7,66.3,30.25,SSW,196,0.0,0.0,86,0.00,CLR,,0.00,WeatherDisplay:10.37,2013-07-16 11:30:00,
2013-07-16 06:32:00,70.8,66.4,30.25,SSW,196,0.0,0.0,86,0.00,CLR,,0.00,WeatherDisplay:10.37,2013-07-16 11:32:00,
2013-07-16 06:33:00,70.7,66.3,30.25,SSW,196,0.0,0.0,86,0.00,CLR,,0.00,WeatherDisplay:10.37,2013-07-16 11:33:00,
2013-07-16 06:34:00,70.9,66.5,30.25,SSW,196,0.0,0.0,86,0.00,CLR,,0.00,WeatherDisplay:10.37,2013-07-16 11:34:00,
2013-07-16 06:36:00,70.9,66.5,30.25,SSW,196,0.0,0.0,86,0.00,CLR,,0.00,WeatherDisplay:10.37,2013-07-16 11:36:00,
2013-07-16 06:37:00,71.0,66.6,30.25,SSW,196,0.0,0.0,86,0.00,CLR,,0.00,WeatherDisplay:10.37,2013-07-16 11:37:00,
2013-07-16 06:38:00,71.1,66.7,30.25,SSW,196,0.0,0.0,86,0.00,CLR,,0.00,WeatherDisplay:10.37,2013-07-16 11:38:00,
2013-07-16 06:39:00,71.0,66.6,30.25,SSW,196,0.0,0.0,86,0.00,CLR,,0.00,WeatherDisplay:10.37,2013-07-16 11:39:00,
2013-07-16 06:41:00,71.3,66.9,30.25,SSW,196,0.0,0.0,86,0.00,CLR,,0.00,WeatherDisplay:10.37,2013-07-16 11:41:00,
2013-07-16 06:42:00,71.3,66.9,30.25,SSW,196,0.0,0.0,86,0.00,CLR,,0.00,WeatherDisplay:10.37,2013-07-16 11:42:00,
2013-07-16 06:43:00,71.4,67.0,30.25,SSW,196,0.0,0.0,86,0.00,CLR,,0.00,WeatherDisplay:10.37,2013-07-16 11:43:00,
2013-07-16 06:44:00,71.4,67.0,30.25,SSW,196,0.0,0.0,86,0.00,CLR,,0.00,WeatherDisplay:10.37,2013-07-16 11:44:00,
2013-07-16 06:46:00,71.6,67.2,30.25,SSW,196,0.0,0.0,86,0.00,CLR,,0.00,WeatherDisplay:10.37,2013-07-16 11:46:00,
2013-07-16 06:48:00,71.6,67.2,30.25,SSW,196,0.0,0.0,86,0.00,CLR,,0.00,WeatherDisplay:10.37,2013-07-16 11:48:00,
2013-07-16 06:49:00,71.6,67.2,30.25,SSW,196,0.0,0.0,86,0.00,CLR,,0.00,WeatherDisplay:10.37,2013-07-16 11:49:00,
2013-07-16 06:50:00,71.7,67.3,30.25,SSW,196,0.0,0.0,86,0.00,CLR,,0.00,WeatherDisplay:10.37,2013-07-16 11:50:00,
2013-07-16 06:51:00,71.9,67.5,30.25,SSW,196,0.0,0.0,86,0.00,CLR,,0.00,WeatherDisplay:10.37,2013-07-16 11:51:00,
2013-07-16 06:53:00,72.1,67.7,30.25,SSW,196,0.0,0.0,86,0.00,CLR,,0.00,WeatherDisplay:10.37,2013-07-16 11:53:00,
2013-07-16 06:54:00,72.1,67.7,30.25,SSW,196,0.0,0.0,86,0.00,CLR,,0.00,WeatherDisplay:10.37,2013-07-16 11:54:00,
2013-07-16 06:56:00,72.4,68.0,30.25,South,179,1.8,3.5,86,0.00,CLR,,0.00,WeatherDisplay:10.37,2013-07-16 11:56:00,
2013-07-16 06:58:00,72.5,68.1,30.25,SSW,200,2.7,4.6,86,0.00,CLR,,0.00,WeatherDisplay:10.37,2013-07-16 11:58:00,
2013-07-16 06:59:00,72.6,68.2,30.25,SW,223,0.9,3.5,86,0.00,CLR,,0.00,WeatherDisplay:10.37,2013-07-16 11:59:00,
2013-07-16 07:01:00,72.8,68.4,30.26,SSW,206,2.2,3.4,86,0.00,CLR,,0.00,WeatherDisplay:10.37,2013-07-16 12:01:00,
2013-07-16 07:03:00,72.9,68.5,30.25,WSW,257,1.6,2.5,86,0.00,CLR,,0.00,WeatherDisplay:10.37,2013-07-16 12:03:00,
2013-07-16 07:05:00,73.1,68.7,30.26,WSW,247,2.6,4.6,86,0.00,CLR,,0.00,WeatherDisplay:10.37,2013-07-16 12:05:00,
2013-07-16 07:06:00,73.2,68.8,30.26,SSW,212,1.2,3.5,86,0.00,CLR,,0.00,WeatherDisplay:10.37,2013-07-16 12:06:00,
2013-07-16 07:08:00,73.3,68.9,30.26,SE,138,1.1,2.3,86,0.00,CLR,,0.00,WeatherDisplay:10.37,2013-07-16 12:08:00,
2013-07-16 07:09:00,73.3,68.9,30.26,South,182,0.7,1.2,86,0.00,CLR,,0.00,WeatherDisplay:10.37,2013-07-16 12:09:00,
2013-07-16 07:10:00,73.4,69.0,30.26,SW,226,2.4,4.2,86,0.00,CLR,,0.00,WeatherDisplay:10.37,2013-07-16 12:10:00,
2013-07-16 07:11:00,73.5,69.1,30.26,SSW,213,1.9,4.6,86,0.00,CLR,,0.00,WeatherDisplay:10.37,2013-07-16 12:11:00,
2013-07-16 07:13:00,73.7,69.2,30.26,SSE,161,1.4,2.4,86,0.00,CLR,,0.00,WeatherDisplay:10.37,2013-07-16 12:13:00,
2013-07-16 07:14:00,73.6,69.2,30.26,SSW,202,1.8,3.5,86,0.00,CLR,,0.00,WeatherDisplay:10.37,2013-07-16 12:14:00,
2013-07-16 07:15:00,73.8,69.3,30.26,South,191,0.6,2.3,86,0.00,CLR,,0.00,WeatherDisplay:10.37,2013-07-16 12:15:00,
2013-07-16 07:16:00,73.9,69.4,30.26,North,360,1.4,2.3,86,0.00,CLR,,0.00,WeatherDisplay:10.37,2013-07-16 12:16:00,
2013-07-16 07:17:00,73.9,69.4,30.26,North,360,1.1,2.3,86,0.00,CLR,,0.00,WeatherDisplay:10.37,2013-07-16 12:17:00,
2013-07-16 07:19:00,74.0,69.5,30.26,SW,232,1.3,2.3,86,0.00,CLR,,0.00,WeatherDisplay:10.37,2013-07-16 12:19:00,
2013-07-16 07:20:00,74.1,69.6,30.26,SSW,202,1.7,2.3,86,0.00,CLR,,0.00,WeatherDisplay:10.37,2013-07-16 12:20:00,
2013-07-16 07:22:00,74.2,69.7,30.26,SW,222,3.4,4.6,86,0.00,CLR,,0.00,WeatherDisplay:10.37,2013-07-16 12:22:00,
2013-07-16 07:24:00,74.3,69.5,30.26,South,172,1.7,2.3,85,0.00,CLR,,0.00,WeatherDisplay:10.37,2013-07-16 12:24:00,
2013-07-16 07:26:00,74.5,69.7,30.26,SSW,195,1.3,2.3,85,0.00,CLR,,0.00,WeatherDisplay:10.37,2013-07-16 12:26:00,
2013-07-16 07:27:00,74.5,69.7,30.26,WSW,239,1.4,2.3,85,0.00,CLR,,0.00,WeatherDisplay:10.37,2013-07-16 12:27:00,
2013-07-16 07:29:00,74.7,69.9,30.26,South,184,2.6,2.7,85,0.00,CLR,,0.00,WeatherDisplay:10.37,2013-07-16 12:29:00,
2013-07-16 07:30:00,74.7,69.9,30.26,SW,216,2.5,3.5,85,0.00,CLR,,0.00,WeatherDisplay:10.37,2013-07-16 12:30:00,
2013-07-16 07:32:00,74.9,70.1,30.26,SSW,202,2.4,4.6,85,0.00,CLR,,0.00,WeatherDisplay:10.37,2013-07-16 12:32:00,
2013-07-16 07:34:00,75.0,69.8,30.26,SW,229,4.0,5.8,84,0.00,CLR,,0.00,WeatherDisplay:10.37,2013-07-16 12:34:00,
2013-07-16 07:35:00,75.0,69.8,30.26,South,188,4.9,5.8,84,0.00,CLR,,0.00,WeatherDisplay:10.37,2013-07-16 12:35:00,
2013-07-16 07:37:00,75.1,69.9,30.26,SE,136,2.2,3.6,84,0.00,CLR,,0.00,WeatherDisplay:10.37,2013-07-16 12:37:00,
2013-07-16 07:40:00,75.3,70.1,30.26,South,182,1.5,3.5,84,0.00,CLR,,0.00,WeatherDisplay:10.37,2013-07-16 12:40:00,
2013-07-16 07:42:00,75.5,70.0,30.26,SW,216,3.0,5.8,83,0.00,CLR,,0.00,WeatherDisplay:10.37,2013-07-16 12:42:00,
2013-07-16 07:45:00,75.5,70.0,30.26,South,185,2.6,3.5,83,0.00,CLR,,0.00,WeatherDisplay:10.37,2013-07-16 12:45:00,
2013-07-16 07:46:00,75.8,70.3,30.26,South,186,1.8,3.5,83,0.00,CLR,,0.00,WeatherDisplay:10.37,2013-07-16 12:46:00,
2013-07-16 07:47:00,75.8,70.3,30.26,SW,224,2.4,3.5,83,0.00,CLR,,0.00,WeatherDisplay:10.37,2013-07-16 12:47:00,
2013-07-16 07:48:00,75.8,70.3,30.26,SW,223,1.9,3.5,83,0.00,CLR,,0.00,WeatherDisplay:10.37,2013-07-16 12:48:00,
2013-07-16 07:50:00,75.9,70.0,30.26,SW,233,2.5,3.5,82,0.00,CLR,,0.00,WeatherDisplay:10.37,2013-07-16 12:50:00,
2013-07-16 07:51:00,75.9,70.0,30.26,SSE,164,2.8,3.5,82,0.00,CLR,,0.00,WeatherDisplay:10.37,2013-07-16 12:51:00,
2013-07-16 07:52:00,76.0,70.1,30.26,WSW,237,2.2,4.6,82,0.00,CLR,,0.00,WeatherDisplay:10.37,2013-07-16 12:52:00,
2013-07-16 07:53:00,76.1,70.2,30.26,SW,215,2.5,3.5,82,0.00,CLR,,0.00,WeatherDisplay:10.37,2013-07-16 12:53:00,
2013-07-16 07:56:00,76.2,70.3,30.26,SW,236,3.9,5.8,82,0.00,CLR,,0.00,WeatherDisplay:10.37,2013-07-16 12:56:00,
2013-07-16 07:57:00,76.4,70.5,30.26,SW,223,3.1,4.6,82,0.00,CLR,,0.00,WeatherDisplay:10.37,2013-07-16 12:57:00,
2013-07-16 07:58:00,76.4,70.5,30.26,WSW,246,2.8,4.6,82,0.00,CLR,,0.00,WeatherDisplay:10.37,2013-07-16 12:58:00,
2013-07-16 08:01:00,76.4,70.1,30.26,SW,233,2.8,4.6,81,0.00,CLR,,0.00,WeatherDisplay:10.37,2013-07-16 13:01:00,
2013-07-16 08:02:00,76.7,70.4,30.26,SW,229,3.7,5.8,81,0.00,CLR,,0.00,WeatherDisplay:10.37,2013-07-16 13:02:00,
2013-07-16 08:03:00,76.7,70.4,30.26,SW,220,3.2,4.6,81,0.00,CLR,,0.00,WeatherDisplay:10.37,2013-07-16 13:03:00,
2013-07-16 08:04:00,76.7,70.4,30.26,SSW,209,2.4,3.5,81,0.00,CLR,,0.00,WeatherDisplay:10.37,2013-07-16 13:04:00,
2013-07-16 08:06:00,76.9,70.6,30.26,West,268,4.4,6.9,81,0.00,CLR,,0.00,WeatherDisplay:10.37,2013-07-16 13:06:00,
2013-07-16 08:08:00,77.0,70.7,30.26,SW,222,4.6,6.9,81,0.00,CLR,,0.00,WeatherDisplay:10.37,2013-07-16 13:08:00,
2013-07-16 08:09:00,77.1,70.5,30.26,WSW,247,4.6,6.9,80,0.00,CLR,,0.00,WeatherDisplay:10.37,2013-07-16 13:09:00,
2013-07-16 08:11:00,77.2,70.5,30.26,SSW,203,5.5,6.9,80,0.00,CLR,,0.00,WeatherDisplay:10.37,2013-07-16 13:11:00,
2013-07-16 08:13:00,77.2,70.5,30.26,SSW,210,4.2,6.7,80,0.00,CLR,,0.00,WeatherDisplay:10.37,2013-07-16 13:13:00,
2013-07-16 08:15:00,77.2,70.5,30.26,WSW,241,4.1,6.9,80,0.00,CLR,,0.00,WeatherDisplay:10.37,2013-07-16 13:15:00,
2013-07-16 08:16:00,77.4,70.4,30.26,WSW,241,3.3,5.8,79,0.00,CLR,,0.00,WeatherDisplay:10.37,2013-07-16 13:16:00,
2013-07-16 08:17:00,77.4,70.4,30.26,WSW,250,3.1,4.6,79,0.00,CLR,,0.00,WeatherDisplay:10.37,2013-07-16 13:17:00,
2013-07-16 08:18:00,77.4,70.4,30.26,SW,223,2.5,4.6,79,0.00,CLR,,0.00,WeatherDisplay:10.37,2013-07-16 13:18:00,
2013-07-16 08:20:00,77.5,70.5,30.26,SW,215,1.8,3.5,79,0.00,CLR,,0.00,WeatherDisplay:10.37,2013-07-16 13:20:00,
2013-07-16 08:21:00,77.8,70.8,30.26,SSE,167,2.6,3.5,79,0.00,CLR,,0.00,WeatherDisplay:10.37,2013-07-16 13:21:00,
2013-07-16 08:22:00,77.8,70.8,30.26,West,268,2.7,4.2,79,0.00,CLR,,0.00,WeatherDisplay:10.37,2013-07-16 13:22:00,
2013-07-16 08:23:00,77.9,70.9,30.26,WSW,253,3.9,5.8,79,0.00,CLR,,0.00,WeatherDisplay:10.37,2013-07-16 13:23:00,
2013-07-16 08:25:00,78.0,70.6,30.26,WSW,257,2.0,3.5,78,0.00,CLR,,0.00,WeatherDisplay:10.37,2013-07-16 13:25:00,
2013-07-16 08:26:00,78.2,70.8,30.26,ESE,123,2.3,4.6,78,0.00,CLR,,0.00,WeatherDisplay:10.37,2013-07-16 13:26:00,
2013-07-16 08:27:00,78.2,70.8,30.26,WSW,246,0.7,3.5,78,0.00,CLR,,0.00,WeatherDisplay:10.37,2013-07-16 13:27:00,
2013-07-16 08:28:00,78.2,70.8,30.26,WSW,240,4.0,4.6,78,0.00,CLR,,0.00,WeatherDisplay:10.37,2013-07-16 13:28:00,
2013-07-16 08:29:00,78.3,70.9,30.26,South,184,3.2,5.8,78,0.00,CLR,,0.00,WeatherDisplay:10.37,2013-07-16 13:29:00,
2013-07-16 08:30:00,78.3,70.9,30.26,ESE,103,2.1,4.6,78,0.00,CLR,,0.00,WeatherDisplay:10.37,2013-07-16 13:30:00,
2013-07-16 08:32:00,78.4,70.6,30.26,SSW,192,3.2,4.6,77,0.00,CLR,,0.00,WeatherDisplay:10.37,2013-07-16 13:32:00,
2013-07-16 08:33:00,78.5,70.7,30.26,SW,220,2.0,3.5,77,0.00,CLR,,0.00,WeatherDisplay:10.37,2013-07-16 13:33:00,
2013-07-16 08:34:00,78.7,70.9,30.26,WSW,257,1.7,3.5,77,0.00,CLR,,0.00,WeatherDisplay:10.37,2013-07-16 13:34:00,
2013-07-16 08:35:00,78.7,70.5,30.26,SW,236,0.9,2.3,76,0.00,CLR,,0.00,WeatherDisplay:10.37,2013-07-16 13:35:00,
2013-07-16 08:37:00,78.9,70.7,30.26,SSW,210,3.8,5.8,76,0.00,CLR,,0.00,WeatherDisplay:10.37,2013-07-16 13:37:00,
2013-07-16 08:39:00,79.0,70.8,30.26,SSE,151,1.4,5.8,76,0.00,CLR,,0.00,WeatherDisplay:10.37,2013-07-16 13:39:00,
2013-07-16 08:40:00,79.1,70.9,30.26,SSW,203,3.0,3.5,76,0.00,CLR,,0.00,WeatherDisplay:10.37,2013-07-16 13:40:00,
2013-07-16 08:42:00,79.1,70.5,30.26,SW,234,1.5,3.5,75,0.00,CLR,,0.00,WeatherDisplay:10.37,2013-07-16 13:42:00,
2013-07-16 08:43:00,79.3,70.7,30.26,WSW,257,1.0,1.4,75,0.00,CLR,,0.00,WeatherDisplay:10.37,2013-07-16 13:43:00,
2013-07-16 08:44:00,79.3,70.7,30.26,SW,226,2.0,3.4,75,0.00,CLR,,0.00,WeatherDisplay:10.37,2013-07-16 13:44:00,
2013-07-16 08:45:00,79.3,70.7,30.26,SSW,212,2.7,3.5,75,0.00,CLR,,0.00,WeatherDisplay:10.37,2013-07-16 13:45:00,
2013-07-16 08:47:00,79.5,70.5,30.26,South,172,3.8,6.9,74,0.00,CLR,,0.00,WeatherDisplay:10.37,2013-07-16 13:47:00,
2013-07-16 08:48:00,79.6,70.6,30.26,WNW,289,2.4,5.8,74,0.00,CLR,,0.00,WeatherDisplay:10.37,2013-07-16 13:48:00,
2013-07-16 08:49:00,79.7,70.7,30.26,West,275,3.5,4.6,74,0.00,CLR,,0.00,WeatherDisplay:10.37,2013-07-16 13:49:00,
2013-07-16 08:50:00,79.8,70.8,30.26,SW,223,2.5,5.8,74,0.00,CLR,,0.00,WeatherDisplay:10.37,2013-07-16 13:50:00,
2013-07-16 08:52:00,80.1,71.1,30.26,SSW,210,2.9,4.6,74,0.00,CLR,,0.00,WeatherDisplay:10.37,2013-07-16 13:52:00,
2013-07-16 08:53:00,80.0,70.6,30.26,SW,215,2.2,4.6,73,0.00,CLR,,0.00,WeatherDisplay:10.37,2013-07-16 13:53:00,
2013-07-16 08:54:00,80.3,70.9,30.26,SW,223,2.1,3.5,73,0.00,CLR,,0.00,WeatherDisplay:10.37,2013-07-16 13:54:00,
2013-07-16 08:55:00,80.4,70.9,30.26,SW,236,2.3,3.5,73,0.00,CLR,,0.00,WeatherDisplay:10.37,2013-07-16 13:55:00,
2013-07-16 08:56:00,80.5,71.0,30.26,SSW,195,2.5,4.6,73,0.00,CLR,,0.00,WeatherDisplay:10.37,2013-07-16 13:56:00,
2013-07-16 08:58:00,80.5,70.6,30.26,NW,316,4.1,5.8,72,0.00,CLR,,0.00,WeatherDisplay:10.37,2013-07-16 13:58:00,
2013-07-16 09:00:00,80.6,70.7,30.26,West,267,2.6,4.6,72,0.00,CLR,,0.00,WeatherDisplay:10.37,2013-07-16 14:00:00,
2013-07-16 09:01:00,80.7,70.8,30.26,SSW,213,2.7,3.5,72,0.00,CLR,,0.00,WeatherDisplay:10.37,2013-07-16 14:01:00,
2013-07-16 09:03:00,81.0,71.1,30.26,SSW,192,3.1,4.6,72,0.00,CLR,,0.00,WeatherDisplay:10.37,2013-07-16 14:03:00,
2013-07-16 09:05:00,81.1,70.8,30.26,SW,222,1.9,3.5,71,0.00,CLR,,0.00,WeatherDisplay:10.37,2013-07-16 14:05:00,
2013-07-16 09:06:00,81.1,70.8,30.26,WSW,246,1.9,3.5,71,0.00,CLR,,0.00,WeatherDisplay:10.37,2013-07-16 14:06:00,
2013-07-16 09:08:00,81.3,71.0,30.27,WSW,247,2.1,3.5,71,0.00,CLR,,0.00,WeatherDisplay:10.37,2013-07-16 14:08:00,
2013-07-16 09:10:00,81.4,70.7,30.27,WSW,246,4.0,6.9,70,0.00,CLR,,0.00,WeatherDisplay:10.37,2013-07-16 14:10:00,
2013-07-16 09:11:00,81.4,70.7,30.27,SW,233,3.6,5.8,70,0.00,CLR,,0.00,WeatherDisplay:10.37,2013-07-16 14:11:00,
2013-07-16 09:13:00,81.4,70.7,30.27,West,277,3.0,4.2,70,0.00,CLR,,0.00,WeatherDisplay:10.37,2013-07-16 14:13:00,
2013-07-16 09:15:00,81.5,70.8,30.26,WSW,243,2.3,3.9,70,0.00,CLR,,0.00,WeatherDisplay:10.37,2013-07-16 14:15:00,
2013-07-16 09:16:00,81.5,70.8,30.26,South,188,4.3,6.9,70,0.00,CLR,,0.00,WeatherDisplay:10.37,2013-07-16 14:16:00,
2013-07-16 09:17:00,81.5,70.8,30.26,SW,232,3.6,6.9,70,0.00,CLR,,0.00,WeatherDisplay:10.37,2013-07-16 14:17:00,
2013-07-16 09:18:00,81.7,70.5,30.26,South,191,2.0,5.8,69,0.00,CLR,,0.00,WeatherDisplay:10.37,2013-07-16 14:18:00,
2013-07-16 09:19:00,81.6,70.4,30.26,SW,229,2.8,4.6,69,0.00,CLR,,0.00,WeatherDisplay:10.37,2013-07-16 14:19:00,
2013-07-16 09:21:00,81.8,70.6,30.26,SW,215,2.3,5.8,69,0.00,CLR,,0.00,WeatherDisplay:10.37,2013-07-16 14:21:00,
2013-07-16 09:22:00,81.7,70.5,30.26,South,185,2.5,5.8,69,0.00,CLR,,0.00,WeatherDisplay:10.37,2013-07-16 14:22:00,
2013-07-16 09:24:00,81.8,70.6,30.26,South,188,1.6,3.5,69,0.00,CLR,,0.00,WeatherDisplay:10.37,2013-07-16 14:24:00,
2013-07-16 09:26:00,82.0,70.4,30.26,SW,236,3.0,4.2,68,0.00,CLR,,0.00,WeatherDisplay:10.37,2013-07-16 14:26:00,
2013-07-16 09:27:00,81.9,70.3,30.26,West,263,3.2,5.8,68,0.00,CLR,,0.00,WeatherDisplay:10.37,2013-07-16 14:27:00,
2013-07-16 09:29:00,81.8,70.2,30.26,West,265,3.8,5.8,68,0.00,CLR,,0.00,WeatherDisplay:10.37,2013-07-16 14:29:00,
2013-07-16 09:32:00,81.8,70.2,30.26,SW,234,3.2,4.6,68,0.00,CLR,,0.00,WeatherDisplay:10.37,2013-07-16 14:32:00,
2013-07-16 09:33:00,81.9,70.3,30.26,WNW,282,2.4,4.6,68,0.00,CLR,,0.00,WeatherDisplay:10.37,2013-07-16 14:33:00,
2013-07-16 09:34:00,81.9,70.3,30.26,West,260,4.2,6.9,68,0.00,CLR,,0.00,WeatherDisplay:10.37,2013-07-16 14:34:00,
2013-07-16 09:37:00,81.9,70.3,30.26,SSW,206,2.2,4.6,68,0.00,CLR,,0.00,WeatherDisplay:10.37,2013-07-16 14:37:00,
2013-07-16 09:38:00,81.9,70.7,30.26,SSW,195,3.0,5.8,69,0.00,CLR,,0.00,WeatherDisplay:10.37,2013-07-16 14:38:00,
2013-07-16 09:39:00,81.9,70.7,30.26,South,185,4.6,6.9,69,0.00,CLR,,0.00,WeatherDisplay:10.37,2013-07-16 14:39:00,
2013-07-16 09:42:00,82.0,70.4,30.26,West,264,4.4,6.9,68,0.00,CLR,,0.00,WeatherDisplay:10.37,2013-07-16 14:42:00,
2013-07-16 09:43:00,82.2,70.6,30.26,SE,137,2.7,6.9,68,0.00,CLR,,0.00,WeatherDisplay:10.37,2013-07-16 14:43:00,
2013-07-16 09:44:00,82.1,70.5,30.26,WNW,288,3.6,5.8,68,0.00,CLR,,0.00,WeatherDisplay:10.37,2013-07-16 14:44:00,
2013-07-16 09:45:00,82.1,70.5,30.26,West,280,3.3,5.8,68,0.00,CLR,,0.00,WeatherDisplay:10.37,2013-07-16 14:45:00,
2013-07-16 09:47:00,82.1,70.5,30.26,WSW,256,2.9,4.7,68,0.00,CLR,,0.00,WeatherDisplay:10.37,2013-07-16 14:47:00,
2013-07-16 09:48:00,82.2,70.6,30.26,SW,224,3.5,4.6,68,0.00,CLR,,0.00,WeatherDisplay:10.37,2013-07-16 14:48:00,
2013-07-16 09:49:00,82.1,70.5,30.26,SSW,209,3.3,5.8,68,0.00,CLR,,0.00,WeatherDisplay:10.37,2013-07-16 14:49:00,
2013-07-16 09:50:00,82.3,70.7,30.26,SW,229,1.7,5.8,68,0.00,CLR,,0.00,WeatherDisplay:10.37,2013-07-16 14:50:00,
2013-07-16 09:52:00,82.3,70.7,30.26,NW,318,0.6,3.5,68,0.00,CLR,,0.00,WeatherDisplay:10.37,2013-07-16 14:52:00,
2013-07-16 09:53:00,82.4,70.8,30.26,West,278,0.6,2.3,68,0.00,CLR,,0.00,WeatherDisplay:10.37,2013-07-16 14:53:00,
2013-07-16 09:54:00,82.4,70.8,30.26,WSW,237,1.2,2.3,68,0.00,CLR,,0.00,WeatherDisplay:10.37,2013-07-16 14:54:00,
2013-07-16 09:55:00,82.4,70.8,30.26,WSW,246,2.3,4.7,68,0.00,CLR,,0.00,WeatherDisplay:10.37,2013-07-16 14:55:00,
2013-07-16 09:57:00,82.4,70.3,30.26,SSW,205,3.5,5.0,67,0.00,CLR,,0.00,WeatherDisplay:10.37,2013-07-16 14:57:00,
2013-07-16 09:58:00,82.4,70.3,30.26,West,268,3.7,5.2,67,0.00,CLR,,0.00,WeatherDisplay:10.37,2013-07-16 14:58:00,
2013-07-16 09:59:00,82.4,69.9,30.26,WSW,239,3.9,6.9,66,0.00,CLR,,0.00,WeatherDisplay:10.37,2013-07-16 14:59:00,
2013-07-16 10:00:00,82.5,70.0,30.26,SSE,161,3.5,5.8,66,0.00,CLR,,0.00,WeatherDisplay:10.37,2013-07-16 15:00:00,
2013-07-16 10:02:00,82.4,70.3,30.26,WSW,243,2.1,3.5,67,0.00,CLR,,0.00,WeatherDisplay:10.37,2013-07-16 15:02:00,
2013-07-16 10:03:00,82.4,69.9,30.26,SSW,205,3.0,4.0,66,0.00,CLR,,0.00,WeatherDisplay:10.37,2013-07-16 15:03:00,
2013-07-16 10:04:00,82.5,70.4,30.26,South,179,3.6,4.6,67,0.00,CLR,,0.00,WeatherDisplay:10.37,2013-07-16 15:04:00,
2013-07-16 10:05:00,82.5,70.4,30.26,SW,226,2.0,5.8,67,0.00,CLR,,0.00,WeatherDisplay:10.37,2013-07-16 15:05:00,
2013-07-16 10:07:00,82.7,70.6,30.26,WSW,243,2.6,4.6,67,0.00,CLR,,0.00,WeatherDisplay:10.37,2013-07-16 15:07:00,
2013-07-16 10:09:00,82.7,70.2,30.26,WSW,240,0.0,4.6,66,0.00,CLR,,0.00,WeatherDisplay:10.37,2013-07-16 15:09:00,
2013-07-16 10:10:00,82.8,70.3,30.26,WSW,250,1.0,3.3,66,0.00,CLR,,0.00,WeatherDisplay:10.37,2013-07-16 15:10:00,
2013-07-16 10:11:00,82.8,70.3,30.26,West,268,1.4,4.6,66,0.00,CLR,,0.00,WeatherDisplay:10.37,2013-07-16 15:11:00,
2013-07-16 10:13:00,82.7,69.7,30.26,SW,233,2.6,7.5,65,0.00,CLR,,0.00,WeatherDisplay:10.37,2013-07-16 15:13:00,
2013-07-16 10:14:00,82.8,69.8,30.26,WSW,241,3.8,8.1,65,0.00,CLR,,0.00,WeatherDisplay:10.37,2013-07-16 15:14:00,
2013-07-16 10:15:00,82.8,69.8,30.26,WSW,254,3.9,8.1,65,0.00,CLR,,0.00,WeatherDisplay:10.37,2013-07-16 15:15:00,
2013-07-16 10:16:00,82.9,69.5,30.26,SW,223,5.2,6.9,64,0.00,CLR,,0.00,WeatherDisplay:10.37,2013-07-16 15:16:00,
2013-07-16 10:18:00,82.9,69.9,30.26,West,261,4.3,5.8,65,0.00,CLR,,0.00,WeatherDisplay:10.37,2013-07-16 15:18:00,
2013-07-16 10:19:00,83.0,70.0,30.26,SW,216,2.4,5.0,65,0.00,CLR,,0.00,WeatherDisplay:10.37,2013-07-16 15:19:00,
2013-07-16 10:20:00,83.0,70.0,30.26,NW,304,3.2,4.6,65,0.00,CLR,,0.00,WeatherDisplay:10.37,2013-07-16 15:20:00,
2013-07-16 10:21:00,83.0,70.0,30.26,SSW,198,3.4,5.8,65,0.00,CLR,,0.00,WeatherDisplay:10.37,2013-07-16 15:21:00,
2013-07-16 10:24:00,83.2,70.2,30.26,SW,216,2.7,8.1,65,0.00,CLR,,0.00,WeatherDisplay:10.37,2013-07-16 15:24:00,
2013-07-16 10:25:00,83.3,70.3,30.26,South,169,2.0,3.5,65,0.00,CLR,,0.00,WeatherDisplay:10.37,2013-07-16 15:25:00,
2013-07-16 10:26:00,83.4,70.4,30.26,WSW,239,1.8,2.3,65,0.00,CLR,,0.00,WeatherDisplay:10.37,2013-07-16 15:26:00,
2013-07-16 10:29:00,83.6,70.1,30.26,SSW,213,2.3,7.3,64,0.00,CLR,,0.00,WeatherDisplay:10.37,2013-07-16 15:29:00,
2013-07-16 10:30:00,83.7,70.2,30.26,SSE,165,2.5,6.9,64,0.00,CLR,,0.00,WeatherDisplay:10.37,2013-07-16 15:30:00,
2013-07-16 10:31:00,83.9,70.4,30.26,SW,216,1.4,4.2,64,0.00,CLR,,0.00,WeatherDisplay:10.37,2013-07-16 15:31:00,
2013-07-16 10:34:00,84.1,70.1,30.26,SW,234,0.4,3.5,63,0.00,CLR,,0.00,WeatherDisplay:10.37,2013-07-16 15:34:00,
2013-07-16 10:35:00,84.4,70.9,30.26,West,280,1.2,3.5,64,0.00,CLR,,0.00,WeatherDisplay:10.37,2013-07-16 15:35:00,
2013-07-16 10:36:00,84.4,70.4,30.26,SW,222,0.7,3.5,63,0.00,CLR,,0.00,WeatherDisplay:10.37,2013-07-16 15:36:00,
2013-07-16 10:39:00,84.5,71.0,30.26,WSW,239,2.3,5.8,64,0.00,CLR,,0.00,WeatherDisplay:10.37,2013-07-16 15:39:00,
2013-07-16 10:40:00,84.5,71.0,30.26,South,188,1.2,3.5,64,0.00,CLR,,0.00,WeatherDisplay:10.37,2013-07-16 15:40:00,
2013-07-16 10:41:00,84.6,71.1,30.26,North,350,2.6,5.8,64,0.00,CLR,,0.00,WeatherDisplay:10.37,2013-07-16 15:41:00,
2013-07-16 10:45:00,84.8,70.8,30.26,WSW,241,2.4,3.5,63,0.00,CLR,,0.00,WeatherDisplay:10.37,2013-07-16 15:45:00,
2013-07-16 10:46:00,84.8,70.3,30.26,SSW,195,3.5,5.8,62,0.00,CLR,,0.00,WeatherDisplay:10.37,2013-07-16 15:46:00,
2013-07-16 10:47:00,85.0,70.5,30.26,NW,316,0.7,3.5,62,0.00,CLR,,0.00,WeatherDisplay:10.37,2013-07-16 15:47:00,
2013-07-16 10:50:00,85.0,70.0,30.26,NNE,16,2.1,3.5,61,0.00,CLR,,0.00,WeatherDisplay:10.37,2013-07-16 15:50:00,
2013-07-16 10:51:00,84.9,69.9,30.26,NNW,328,1.9,3.5,61,0.00,CLR,,0.00,WeatherDisplay:10.37,2013-07-16 15:51:00,
2013-07-16 10:52:00,84.8,69.9,30.26,West,268,0.6,3.5,61,0.00,CLR,,0.00,WeatherDisplay:10.37,2013-07-16 15:52:00,
2013-07-16 10:55:00,84.9,70.4,30.26,West,268,0.0,0.0,62,0.00,CLR,,0.00,WeatherDisplay:10.37,2013-07-16 15:55:00,
2013-07-16 10:56:00,84.8,70.3,30.26,West,268,0.0,0.0,62,0.00,CLR,,0.00,WeatherDisplay:10.37,2013-07-16 15:56:00,
2013-07-16 10:57:00,84.8,70.3,30.26,West,264,0.3,2.3,62,0.00,CLR,,0.00,WeatherDisplay:10.37,2013-07-16 15:57:00,
2013-07-16 11:00:00,84.8,69.9,30.26,WSW,237,4.3,6.2,61,0.00,CLR,,0.00,WeatherDisplay:10.37,2013-07-16 16:00:00,
2013-07-16 11:01:00,84.9,69.9,30.26,WSW,240,4.2,6.9,61,0.00,CLR,,0.00,WeatherDisplay:10.37,2013-07-16 16:01:00,
2013-07-16 11:02:00,84.9,69.9,30.26,WSW,258,3.8,6.9,61,0.00,CLR,,0.00,WeatherDisplay:10.37,2013-07-16 16:02:00,
2013-07-16 11:05:00,84.7,69.8,30.26,WSW,253,4.3,6.9,61,0.00,CLR,,0.00,WeatherDisplay:10.37,2013-07-16 16:05:00,
2013-07-16 11:06:00,84.6,69.7,30.26,SW,216,3.0,6.9,61,0.00,CLR,,0.00,WeatherDisplay:10.37,2013-07-16 16:06:00,
2013-07-16 11:07:00,84.6,69.7,30.26,South,179,2.8,4.6,61,0.00,CLR,,0.00,WeatherDisplay:10.37,2013-07-16 16:07:00,
2013-07-16 11:10:00,84.3,69.4,30.26,SW,224,2.5,5.8,61,0.00,CLR,,0.00,WeatherDisplay:10.37,2013-07-16 16:10:00,
2013-07-16 11:12:00,84.3,69.4,30.26,WNW,291,1.1,3.5,61,0.00,CLR,,0.00,WeatherDisplay:10.37,2013-07-16 16:12:00,
2013-07-16 11:15:00,84.0,69.6,30.26,WSW,246,1.5,2.3,62,0.00,CLR,,0.00,WeatherDisplay:10.37,2013-07-16 16:15:00,
2013-07-16 11:17:00,84.0,69.6,30.26,SSW,202,1.0,4.6,62,0.00,CLR,,0.00,WeatherDisplay:10.37,2013-07-16 16:17:00,
2013-07-16 11:20:00,83.8,69.4,30.26,WSW,251,3.5,5.5,62,0.00,CLR,,0.00,WeatherDisplay:10.37,2013-07-16 16:20:00,
2013-07-16 11:22:00,83.7,69.8,30.26,WSW,243,0.6,5.8,63,0.00,CLR,,0.00,WeatherDisplay:10.37,2013-07-16 16:22:00,
2013-07-16 11:23:00,83.8,70.3,30.26,SW,226,2.3,3.6,64,0.00,CLR,,0.00,WeatherDisplay:10.37,2013-07-16 16:23:00,
2013-07-16 11:26:00,83.8,69.9,30.26,West,260,3.2,4.6,63,0.00,CLR,,0.00,WeatherDisplay:10.37,2013-07-16 16:26:00,
2013-07-16 11:27:00,84.0,70.0,30.26,WSW,237,2.7,4.6,63,0.00,CLR,,0.00,WeatherDisplay:10.37,2013-07-16 16:27:00,
2013-07-16 11:28:00,84.1,70.1,30.26,SW,220,2.8,3.5,63,0.00,CLR,,0.00,WeatherDisplay:10.37,2013-07-16 16:28:00,
2013-07-16 11:29:00,84.1,69.7,30.26,SSW,202,3.0,4.6,62,0.00,CLR,,0.00,WeatherDisplay:10.37,2013-07-16 16:29:00,
2013-07-16 11:31:00,84.1,69.7,30.26,SSW,193,2.5,4.6,62,0.00,CLR,,0.00,WeatherDisplay:10.37,2013-07-16 16:31:00,
2013-07-16 11:32:00,84.1,69.7,30.26,SW,230,1.8,4.6,62,0.00,CLR,,0.00,WeatherDisplay:10.37,2013-07-16 16:32:00,
2013-07-16 11:33:00,84.2,69.8,30.26,West,281,2.1,3.5,62,0.00,CLR,,0.00,WeatherDisplay:10.37,2013-07-16 16:33:00,
2013-07-16 11:34:00,84.3,69.9,30.27,WSW,251,2.7,3.5,62,0.00,CLR,,0.00,WeatherDisplay:10.37,2013-07-16 16:34:00,
2013-07-16 11:36:00,84.4,70.0,30.27,WSW,251,0.0,2.3,62,0.00,CLR,,0.00,WeatherDisplay:10.37,2013-07-16 16:36:00,
2013-07-16 11:37:00,84.3,69.4,30.27,WSW,251,0.0,0.0,61,0.00,CLR,,0.00,WeatherDisplay:10.37,2013-07-16 16:37:00,
2013-07-16 11:38:00,84.3,69.4,30.27,WSW,251,0.0,0.0,61,0.00,CLR,,0.00,WeatherDisplay:10.37,2013-07-16 16:38:00,
2013-07-16 11:39:00,84.2,69.3,30.26,WSW,251,0.0,0.0,61,0.00,CLR,,0.00,WeatherDisplay:10.37,2013-07-16 16:39:00,
2013-07-16 11:41:00,84.1,69.2,30.26,WSW,257,2.5,5.8,61,0.00,CLR,,0.00,WeatherDisplay:10.37,2013-07-16 16:41:00,
2013-07-16 11:43:00,84.2,69.3,30.26,WSW,257,0.0,0.0,61,0.00,CLR,,0.00,WeatherDisplay:10.37,2013-07-16 16:43:00,
2013-07-16 11:44:00,84.1,69.2,30.26,WSW,257,0.0,0.0,61,0.00,CLR,,0.00,WeatherDisplay:10.37,2013-07-16 16:44:00,
2013-07-16 11:47:00,83.8,68.9,30.26,WSW,253,2.1,4.6,61,0.00,CLR,,0.00,WeatherDisplay:10.37,2013-07-16 16:47:00,
2013-07-16 11:48:00,83.9,69.0,30.26,WNW,302,1.6,2.3,61,0.00,CLR,,0.00,WeatherDisplay:10.37,2013-07-16 16:48:00,
2013-07-16 11:49:00,83.9,69.5,30.26,WNW,302,0.2,1.2,62,0.00,CLR,,0.00,WeatherDisplay:10.37,2013-07-16 16:49:00,
2013-07-16 11:52:00,83.8,69.4,30.26,SSW,195,1.9,3.5,62,0.00,CLR,,0.00,WeatherDisplay:10.37,2013-07-16 16:52:00,
2013-07-16 11:53:00,83.6,68.7,30.26,SSW,195,0.1,3.5,61,0.00,CLR,,0.00,WeatherDisplay:10.37,2013-07-16 16:53:00,
2013-07-16 11:54:00,83.6,68.7,30.26,SSW,195,0.1,0.4,61,0.00,CLR,,0.00,WeatherDisplay:10.37,2013-07-16 16:54:00,
2013-07-16 11:58:00,83.7,68.8,30.26,South,174,0.0,1.6,61,0.00,CLR,,0.00,WeatherDisplay:10.37,2013-07-16 16:58:00,
2013-07-16 11:59:00,83.7,68.8,30.26,South,169,0.3,2.3,61,0.00,CLR,,0.00,WeatherDisplay:10.37,2013-07-16 16:59:00,
2013-07-16 12:00:00,83.8,69.4,30.26,South,169,0.0,0.0,62,0.00,CLR,,0.00,WeatherDisplay:10.37,2013-07-16 17:00:00,
2013-07-16 12:03:00,84.0,69.6,30.26,South,169,0.0,0.0,62,0.00,CLR,,0.00,WeatherDisplay:10.37,2013-07-16 17:03:00,
2013-07-16 12:04:00,84.0,69.1,30.26,South,169,0.0,0.0,61,0.00,CLR,,0.00,WeatherDisplay:10.37,2013-07-16 17:04:00,
2013-07-16 12:05:00,84.1,69.2,30.26,South,175,1.6,3.5,61,0.00,CLR,,0.00,WeatherDisplay:10.37,2013-07-16 17:05:00,
2013-07-16 12:08:00,84.4,70.0,30.26,SSW,200,2.9,5.8,62,0.00,CLR,,0.00,WeatherDisplay:10.37,2013-07-16 17:08:00,
2013-07-16 12:09:00,84.6,70.1,30.26,South,178,1.0,5.8,62,0.00,CLR,,0.00,WeatherDisplay:10.37,2013-07-16 17:09:00,
2013-07-16 12:10:00,84.6,69.7,30.26,SW,223,1.4,3.7,61,0.00,CLR,,0.00,WeatherDisplay:10.37,2013-07-16 17:10:00,
2013-07-16 12:14:00,85.1,69.7,30.26,South,188,4.3,5.8,60,0.00,CLR,,0.00,WeatherDisplay:10.37,2013-07-16 17:14:00,
2013-07-16 12:15:00,85.2,69.3,30.26,SSE,168,2.3,5.8,59,0.00,CLR,,0.00,WeatherDisplay:10.37,2013-07-16 17:15:00,
2013-07-16 12:19:00,85.7,69.2,30.26,South,171,3.2,4.6,58,0.00,CLR,,0.00,WeatherDisplay:10.37,2013-07-16 17:19:00,
2013-07-16 12:20:00,85.7,69.2,30.26,SSW,206,1.7,5.8,58,0.00,CLR,,0.00,WeatherDisplay:10.37,2013-07-16 17:20:00,
2013-07-16 12:24:00,86.3,69.8,30.26,SSW,205,2.1,3.5,58,0.00,CLR,,0.00,WeatherDisplay:10.37,2013-07-16 17:24:00,
2013-07-16 12:25:00,86.5,70.0,30.26,SSW,210,0.7,3.5,58,0.00,CLR,,0.00,WeatherDisplay:10.37,2013-07-16 17:25:00,
2013-07-16 12:29:00,86.8,68.7,30.26,SW,230,4.2,5.8,55,0.00,CLR,,0.00,WeatherDisplay:10.37,2013-07-16 17:29:00,
2013-07-16 12:30:00,86.9,68.8,30.26,SW,234,4.1,5.8,55,0.00,CLR,,0.00,WeatherDisplay:10.37,2013-07-16 17:30:00,
2013-07-16 12:31:00,86.9,68.8,30.26,SW,219,3.3,5.8,55,0.00,CLR,,0.00,WeatherDisplay:10.37,2013-07-16 17:31:00,
2013-07-16 12:35:00,87.2,69.6,30.26,NNW,329,2.2,4.6,56,0.00,CLR,,0.00,WeatherDisplay:10.37,2013-07-16 17:35:00,
2013-07-16 12:36:00,87.4,69.3,30.26,SW,220,2.6,4.6,55,0.00,CLR,,0.00,WeatherDisplay:10.37,2013-07-16 17:36:00,
2013-07-16 12:40:00,87.4,68.7,30.26,SSW,206,1.1,3.5,54,0.00,CLR,,0.00,WeatherDisplay:10.37,2013-07-16 17:40:00,
2013-07-16 12:41:00,87.4,68.7,30.26,NNW,344,0.9,2.3,54,0.00,CLR,,0.00,WeatherDisplay:10.37,2013-07-16 17:41:00,
2013-07-16 12:42:00,87.4,69.3,30.26,SW,236,2.8,4.6,55,0.00,CLR,,0.00,WeatherDisplay:10.37,2013-07-16 17:42:00,
2013-07-16 12:45:00,87.9,69.2,30.26,SW,222,3.3,5.8,54,0.00,CLR,,0.00,WeatherDisplay:10.37,2013-07-16 17:45:00,
2013-07-16 12:46:00,87.9,69.2,30.26,WSW,243,1.9,4.6,54,0.00,CLR,,0.00,WeatherDisplay:10.37,2013-07-16 17:46:00,
2013-07-16 12:47:00,88.0,69.3,30.26,West,261,3.7,6.3,54,0.00,CLR,,0.00,WeatherDisplay:10.37,2013-07-16 17:47:00,
2013-07-16 12:50:00,88.5,68.6,30.26,West,270,2.8,5.8,52,0.00,CLR,,0.00,WeatherDisplay:10.37,2013-07-16 17:50:00,
2013-07-16 12:51:00,88.4,68.5,30.26,NNW,339,2.8,6.0,52,0.00,CLR,,0.00,WeatherDisplay:10.37,2013-07-16 17:51:00,
2013-07-16 12:52:00,88.6,68.7,30.26,WNW,296,2.8,5.8,52,0.00,CLR,,0.00,WeatherDisplay:10.37,2013-07-16 17:52:00,
2013-07-16 12:55:00,88.9,69.0,30.26,WSW,248,2.6,4.2,52,0.00,CLR,,0.00,WeatherDisplay:10.37,2013-07-16 17:55:00,
2013-07-16 12:56:00,89.0,68.5,30.26,WSW,243,3.7,8.4,51,0.00,CLR,,0.00,WeatherDisplay:10.37,2013-07-16 17:56:00,
2013-07-16 12:57:00,88.9,68.4,30.26,WSW,246,5.5,9.2,51,0.00,CLR,,0.00,WeatherDisplay:10.37,2013-07-16 17:57:00,
2013-07-16 13:01:00,89.1,68.6,30.26,South,182,3.3,4.6,51,0.00,CLR,,0.00,WeatherDisplay:10.37,2013-07-16 18:01:00,
2013-07-16 13:02:00,89.0,68.5,30.26,SW,215,2.5,5.8,51,0.00,CLR,,0.00,WeatherDisplay:10.37,2013-07-16 18:02:00,
2013-07-16 13:06:00,88.8,68.9,30.26,WNW,289,2.7,6.9,52,0.00,CLR,,0.00,WeatherDisplay:10.37,2013-07-16 18:06:00,
2013-07-16 13:07:00,88.8,68.9,30.26,NW,306,3.4,6.9,52,0.00,CLR,,0.00,WeatherDisplay:10.37,2013-07-16 18:07:00,
2013-07-16 13:11:00,89.0,69.1,30.25,SW,216,3.0,4.6,52,0.00,CLR,,0.00,WeatherDisplay:10.37,2013-07-16 18:11:00,
2013-07-16 13:12:00,89.0,69.1,30.25,WSW,253,2.5,4.6,52,0.00,CLR,,0.00,WeatherDisplay:10.37,2013-07-16 18:12:00,
2013-07-16 13:16:00,89.2,68.7,30.25,WNW,284,2.4,3.5,51,0.00,CLR,,0.00,WeatherDisplay:10.37,2013-07-16 18:16:00,
2013-07-16 13:17:00,89.1,68.0,30.25,SSW,196,1.3,4.6,50,0.00,CLR,,0.00,WeatherDisplay:10.37,2013-07-16 18:17:00,
2013-07-16 13:18:00,89.2,68.1,30.25,SSW,196,0.4,2.3,50,0.00,CLR,,0.00,WeatherDisplay:10.37,2013-07-16 18:18:00,
2013-07-16 13:21:00,88.9,68.4,30.25,SW,229,3.6,5.0,51,0.00,CLR,,0.00,WeatherDisplay:10.37,2013-07-16 18:21:00,
2013-07-16 13:22:00,88.8,68.3,30.25,SSW,206,3.7,6.9,51,0.00,CLR,,0.00,WeatherDisplay:10.37,2013-07-16 18:22:00,
2013-07-16 13:23:00,88.7,68.2,30.25,WSW,237,3.0,4.6,51,0.00,CLR,,0.00,WeatherDisplay:10.37,2013-07-16 18:23:00,
2013-07-16 13:26:00,88.3,67.9,30.25,SSW,192,4.7,5.8,51,0.00,CLR,,0.00,WeatherDisplay:10.37,2013-07-16 18:26:00,
2013-07-16 13:27:00,88.2,67.8,30.25,SSW,212,5.8,6.9,51,0.00,CLR,,0.00,WeatherDisplay:10.37,2013-07-16 18:27:00,
2013-07-16 13:28:00,88.2,67.8,30.25,WSW,257,4.7,8.1,51,0.00,CLR,,0.00,WeatherDisplay:10.37,2013-07-16 18:28:00,
2013-07-16 13:29:00,88.1,67.7,30.25,SSW,196,2.8,4.6,51,0.00,CLR,,0.00,WeatherDisplay:10.37,2013-07-16 18:29:00,
2013-07-16 13:31:00,87.8,68.0,30.25,SSW,195,4.0,5.8,52,0.00,CLR,,0.00,WeatherDisplay:10.37,2013-07-16 18:31:00,
2013-07-16 13:32:00,87.7,67.9,30.25,SW,219,2.5,5.8,52,0.00,CLR,,0.00,WeatherDisplay:10.37,2013-07-16 18:32:00,
2013-07-16 13:33:00,87.6,67.8,30.25,SSW,209,1.8,3.5,52,0.00,CLR,,0.00,WeatherDisplay:10.37,2013-07-16 18:33:00,
2013-07-16 13:34:00,87.6,67.8,30.25,SSW,209,0.1,1.2,52,0.00,CLR,,0.00,WeatherDisplay:10.37,2013-07-16 18:34:00,
2013-07-16 13:36:00,87.4,68.2,30.25,SW,236,0.6,2.3,53,0.00,CLR,,0.00,WeatherDisplay:10.37,2013-07-16 18:36:00,
2013-07-16 13:37:00,87.3,68.1,30.25,SSW,203,0.9,2.3,53,0.00,CLR,,0.00,WeatherDisplay:10.37,2013-07-16 18:37:00,
2013-07-16 13:38:00,87.2,68.0,30.25,West,264,3.3,4.6,53,0.00,CLR,,0.00,WeatherDisplay:10.37,2013-07-16 18:38:00,
2013-07-16 13:39:00,87.1,67.9,30.25,West,272,3.1,5.0,53,0.00,CLR,,0.00,WeatherDisplay:10.37,2013-07-16 18:39:00,
2013-07-16 13:41:00,87.3,68.6,30.25,South,191,6.3,9.2,54,0.00,CLR,,0.00,WeatherDisplay:10.37,2013-07-16 18:41:00,
2013-07-16 13:42:00,87.3,68.6,30.25,SW,232,5.8,9.2,54,0.00,CLR,,0.00,WeatherDisplay:10.37,2013-07-16 18:42:00,
2013-07-16 13:43:00,87.4,68.7,30.25,WSW,250,3.9,6.9,54,0.00,CLR,,0.00,WeatherDisplay:10.37,2013-07-16 18:43:00,
2013-07-16 13:44:00,87.7,69.0,30.25,WSW,239,5.1,6.9,54,0.00,CLR,,0.00,WeatherDisplay:10.37,2013-07-16 18:44:00,
2013-07-16 13:47:00,88.2,68.4,30.25,SSW,210,5.7,9.2,52,0.00,CLR,,0.00,WeatherDisplay:10.37,2013-07-16 18:47:00,
2013-07-16 13:48:00,88.2,68.4,30.25,SW,223,3.9,8.1,52,0.00,CLR,,0.00,WeatherDisplay:10.37,2013-07-16 18:48:00,
2013-07-16 13:49:00,88.3,68.4,30.25,WSW,254,3.9,5.8,52,0.00,CLR,,0.00,WeatherDisplay:10.37,2013-07-16 18:49:00,
2013-07-16 13:52:00,88.3,67.3,30.25,WSW,241,4.3,6.9,50,0.00,CLR,,0.00,WeatherDisplay:10.37,2013-07-16 18:52:00,
2013-07-16 13:53:00,88.2,67.2,30.25,SW,232,4.3,5.8,50,0.00,CLR,,0.00,WeatherDisplay:10.37,2013-07-16 18:53:00,
2013-07-16 13:54:00,88.2,67.8,30.25,SW,216,4.2,5.8,51,0.00,CLR,,0.00,WeatherDisplay:10.37,2013-07-16 18:54:00,
2013-07-16 13:58:00,88.1,68.3,30.25,SSW,202,3.3,6.9,52,0.00,CLR,,0.00,WeatherDisplay:10.37,2013-07-16 18:58:00,
2013-07-16 13:59:00,88.1,68.3,30.25,WSW,244,3.5,6.9,52,0.00,CLR,,0.00,WeatherDisplay:10.37,2013-07-16 18:59:00,
2013-07-16 14:03:00,88.7,68.2,30.25,WSW,237,5.4,8.1,51,0.00,CLR,,0.00,WeatherDisplay:10.37,2013-07-16 19:03:00,
2013-07-16 14:04:00,89.0,68.5,30.25,West,270,3.8,6.9,51,0.00,CLR,,0.00,WeatherDisplay:10.37,2013-07-16 19:04:00,
2013-07-16 14:08:00,89.7,68.6,30.25,West,270,4.2,6.9,50,0.00,CLR,,0.00,WeatherDisplay:10.37,2013-07-16 19:08:00,
2013-07-16 14:09:00,90.0,68.9,30.25,SSW,192,4.7,6.9,50,0.00,CLR,,0.00,WeatherDisplay:10.37,2013-07-16 19:09:00,
2013-07-16 14:13:00,90.6,68.2,30.25,West,260,5.0,6.9,48,0.00,CLR,,0.00,WeatherDisplay:10.37,2013-07-16 19:13:00,
2013-07-16 14:14:00,90.7,68.3,30.25,SW,230,3.8,5.8,48,0.00,CLR,,0.00,WeatherDisplay:10.37,2013-07-16 19:14:00,
2013-07-16 14:15:00,90.8,68.4,30.25,South,186,3.2,5.8,48,0.00,CLR,,0.00,WeatherDisplay:10.37,2013-07-16 19:15:00,
2013-07-16 14:18:00,91.2,68.8,30.25,NNE,23,0.0,2.3,48,0.00,CLR,,0.00,WeatherDisplay:10.37,2013-07-16 19:18:00,
2013-07-16 14:19:00,91.1,68.7,30.25,West,264,1.7,4.5,48,0.00,CLR,,0.00,WeatherDisplay:10.37,2013-07-16 19:19:00,
2013-07-16 14:20:00,91.0,68.6,30.25,West,263,3.3,4.6,48,0.00,CLR,,0.00,WeatherDisplay:10.37,2013-07-16 19:20:00,
2013-07-16 14:23:00,91.1,68.1,30.25,WSW,250,3.0,9.2,47,0.00,CLR,,0.00,WeatherDisplay:10.37,2013-07-16 19:23:00,
2013-07-16 14:25:00,91.0,68.0,30.25,WSW,250,0.1,1.2,47,0.00,CLR,,0.00,WeatherDisplay:10.37,2013-07-16 19:25:00,
2013-07-16 14:29:00,90.4,67.4,30.25,WSW,244,3.1,5.8,47,0.00,CLR,,0.00,WeatherDisplay:10.37,2013-07-16 19:29:00,
2013-07-16 14:30:00,90.2,67.9,30.25,West,274,3.4,6.9,48,0.00,CLR,,0.00,WeatherDisplay:10.37,2013-07-16 19:30:00,
2013-07-16 14:34:00,90.2,67.9,30.25,WNW,291,4.2,6.9,48,0.00,CLR,,0.00,WeatherDisplay:10.37,2013-07-16 19:34:00,
2013-07-16 14:35:00,90.1,67.8,30.25,SW,224,3.9,6.9,48,0.00,CLR,,0.00,WeatherDisplay:10.37,2013-07-16 19:35:00,
2013-07-16 14:36:00,90.3,67.9,30.25,SSW,196,3.8,6.9,48,0.00,CLR,,0.00,WeatherDisplay:10.37,2013-07-16 19:36:00,
2013-07-16 14:39:00,90.7,67.7,30.25,West,275,2.6,8.1,47,0.00,CLR,,0.00,WeatherDisplay:10.37,2013-07-16 19:39:00,
2013-07-16 14:40:00,90.8,67.8,30.25,WSW,246,3.3,4.6,47,0.00,CLR,,0.00,WeatherDisplay:10.37,2013-07-16 19:40:00,
2013-07-16 14:41:00,90.8,67.8,30.25,SW,229,4.3,4.8,47,0.00,CLR,,0.00,WeatherDisplay:10.37,2013-07-16 19:41:00,
2013-07-16 14:44:00,91.3,68.9,30.25,SW,216,2.4,3.5,48,0.00,CLR,,0.00,WeatherDisplay:10.37,2013-07-16 19:44:00,
2013-07-16 14:45:00,91.4,69.0,30.25,SSW,198,2.9,5.8,48,0.00,CLR,,0.00,WeatherDisplay:10.37,2013-07-16 19:45:00,
2013-07-16 14:46:00,91.6,69.1,30.25,WNW,287,3.6,6.9,48,0.00,CLR,,0.00,WeatherDisplay:10.37,2013-07-16 19:46:00,
2013-07-16 14:49:00,92.0,68.3,30.25,SW,226,5.1,7.1,46,0.00,CLR,,0.00,WeatherDisplay:10.37,2013-07-16 19:49:00,
2013-07-16 14:50:00,92.0,68.3,30.25,SW,230,5.7,8.1,46,0.00,CLR,,0.00,WeatherDisplay:10.37,2013-07-16 19:50:00,
2013-07-16 14:51:00,92.1,68.3,30.25,WSW,247,5.3,9.2,46,0.00,CLR,,0.00,WeatherDisplay:10.37,2013-07-16 19:51:00,
2013-07-16 14:54:00,92.3,67.9,30.25,SSW,202,1.6,4.6,45,0.00,CLR,,0.00,WeatherDisplay:10.37,2013-07-16 19:54:00,
2013-07-16 14:55:00,92.5,68.7,30.25,WSW,258,3.8,5.8,46,0.00,CLR,,0.00,WeatherDisplay:10.37,2013-07-16 19:55:00,
2013-07-16 14:56:00,92.4,68.0,30.25,WSW,254,3.9,5.8,45,0.00,CLR,,0.00,WeatherDisplay:10.37,2013-07-16 19:56:00,
2013-07-16 14:57:00,92.7,68.2,30.25,WNW,289,3.1,4.6,45,0.00,CLR,,0.00,WeatherDisplay:10.37,2013-07-16 19:57:00,
2013-07-16 15:00:00,92.7,68.2,30.25,WSW,243,1.8,4.6,45,0.00,CLR,,0.00,WeatherDisplay:10.37,2013-07-16 20:00:00,
2013-07-16 15:01:00,92.3,67.9,30.25,SW,230,4.8,6.0,45,0.00,CLR,,0.00,WeatherDisplay:10.37,2013-07-16 20:01:00,
2013-07-16 15:02:00,92.7,68.2,30.25,SSW,212,3.4,8.1,45,0.00,CLR,,0.00,WeatherDisplay:10.37,2013-07-16 20:02:00,
2013-07-16 15:05:00,92.3,67.9,30.25,West,260,3.3,5.8,45,0.00,CLR,,0.00,WeatherDisplay:10.37,2013-07-16 20:05:00,
2013-07-16 15:06:00,92.2,68.4,30.25,SW,230,1.3,4.6,46,0.00,CLR,,0.00,WeatherDisplay:10.37,2013-07-16 20:06:00,
2013-07-16 15:07:00,92.3,68.5,30.25,SW,230,0.8,5.2,46,0.00,CLR,,0.00,WeatherDisplay:10.37,2013-07-16 20:07:00,
2013-07-16 15:10:00,92.5,68.1,30.25,WSW,237,5.5,8.1,45,0.00,CLR,,0.00,WeatherDisplay:10.37,2013-07-16 20:10:00,
2013-07-16 15:11:00,92.4,68.0,30.25,South,189,3.5,8.1,45,0.00,CLR,,0.00,WeatherDisplay:10.37,2013-07-16 20:11:00,
2013-07-16 15:12:00,92.7,67.6,30.24,WSW,250,6.1,8.1,44,0.00,CLR,,0.00,WeatherDisplay:10.37,2013-07-16 20:12:00,
2013-07-16 15:15:00,92.8,67.7,30.25,SSW,192,4.8,9.2,44,0.00,CLR,,0.00,WeatherDisplay:10.37,2013-07-16 20:15:00,
2013-07-16 15:16:00,92.8,67.7,30.25,WSW,243,6.2,8.5,44,0.00,CLR,,0.00,WeatherDisplay:10.37,2013-07-16 20:16:00,
2013-07-16 15:17:00,92.8,66.3,30.25,WSW,241,7.2,9.2,42,0.00,CLR,,0.00,WeatherDisplay:10.37,2013-07-16 20:17:00,
2013-07-16 15:18:00,92.9,67.1,30.24,SW,220,5.1,8.1,43,0.00,CLR,,0.00,WeatherDisplay:10.37,2013-07-16 20:18:00,
2013-07-16 15:20:00,92.8,67.7,30.25,SW,232,5.2,8.1,44,0.00,CLR,,0.00,WeatherDisplay:10.37,2013-07-16 20:20:00,
2013-07-16 15:21:00,92.8,67.7,30.24,SSW,212,5.3,8.1,44,0.00,CLR,,0.00,WeatherDisplay:10.37,2013-07-16 20:21:00,
2013-07-16 15:22:00,92.5,67.4,30.24,SW,232,4.8,8.1,44,0.00,CLR,,0.00,WeatherDisplay:10.37,2013-07-16 20:22:00,
2013-07-16 15:23:00,92.7,67.6,30.24,NW,311,3.2,4.6,44,0.00,CLR,,0.00,WeatherDisplay:10.37,2013-07-16 20:23:00,
2013-07-16 15:25:00,92.3,67.9,30.24,SW,216,3.5,7.4,45,0.00,CLR,,0.00,WeatherDisplay:10.37,2013-07-16 20:25:00,
2013-07-16 15:26:00,92.3,67.9,30.24,WSW,243,5.3,6.9,45,0.00,CLR,,0.00,WeatherDisplay:10.37,2013-07-16 20:26:00,
2013-07-16 15:27:00,92.3,68.5,30.24,SSW,198,3.1,9.2,46,0.00,CLR,,0.00,WeatherDisplay:10.37,2013-07-16 20:27:00,
2013-07-16 15:28:00,92.4,68.6,30.24,SSW,202,2.2,4.6,46,0.00,CLR,,0.00,WeatherDisplay:10.37,2013-07-16 20:28:00,
2013-07-16 15:31:00,92.5,69.3,30.24,West,280,2.7,3.5,47,0.00,CLR,,0.00,WeatherDisplay:10.37,2013-07-16 20:31:00,
2013-07-16 15:32:00,92.8,69.0,30.24,WSW,246,3.8,5.8,46,0.00,CLR,,0.00,WeatherDisplay:10.37,2013-07-16 20:32:00,
2013-07-16 15:33:00,93.1,68.6,30.24,SW,226,2.3,4.6,45,0.00,CLR,,0.00,WeatherDisplay:10.37,2013-07-16 20:33:00,
2013-07-16 15:36:00,93.4,68.9,30.24,SW,220,4.8,8.1,45,0.00,CLR,,0.00,WeatherDisplay:10.37,2013-07-16 20:36:00,
2013-07-16 15:37:00,93.5,68.3,30.24,WSW,256,5.3,8.1,44,0.00,CLR,,0.00,WeatherDisplay:10.37,2013-07-16 20:37:00,
2013-07-16 15:38:00,93.7,67.8,30.24,WSW,257,5.4,6.9,43,0.00,CLR,,0.00,WeatherDisplay:10.37,2013-07-16 20:38:00,
2013-07-16 15:41:00,93.8,67.9,30.24,SSW,209,3.8,6.9,43,0.00,CLR,,0.00,WeatherDisplay:10.37,2013-07-16 20:41:00,
2013-07-16 15:42:00,94.0,68.1,30.24,WSW,244,4.6,6.9,43,0.00,CLR,,0.00,WeatherDisplay:10.37,2013-07-16 20:42:00,
2013-07-16 15:44:00,93.9,68.0,30.24,SW,227,5.3,8.1,43,0.00,CLR,,0.00,WeatherDisplay:10.37,2013-07-16 20:44:00,
2013-07-16 15:46:00,93.5,67.6,30.24,SW,215,2.1,3.5,43,0.00,CLR,,0.00,WeatherDisplay:10.37,2013-07-16 20:46:00,
2013-07-16 15:47:00,93.4,67.6,30.24,SW,229,3.1,4.6,43,0.00,CLR,,0.00,WeatherDisplay:10.37,2013-07-16 20:47:00,
2013-07-16 15:48:00,93.5,68.3,30.24,SW,216,2.8,4.4,44,0.00,CLR,,0.00,WeatherDisplay:10.37,2013-07-16 20:48:00,
2013-07-16 15:49:00,93.4,68.2,30.24,SW,223,4.6,6.9,44,0.00,CLR,,0.00,WeatherDisplay:10.37,2013-07-16 20:49:00,
2013-07-16 15:51:00,93.3,68.1,30.24,WSW,258,2.8,6.9,44,0.00,CLR,,0.00,WeatherDisplay:10.37,2013-07-16 20:51:00,
2013-07-16 15:52:00,93.3,68.1,30.24,West,263,3.1,5.8,44,0.00,CLR,,0.00,WeatherDisplay:10.37,2013-07-16 20:52:00,
2013-07-16 15:53:00,93.4,68.2,30.24,NW,313,2.5,4.6,44,0.00,CLR,,0.00,WeatherDisplay:10.37,2013-07-16 20:53:00,
2013-07-16 15:54:00,93.3,68.1,30.24,SW,229,4.3,8.1,44,0.00,CLR,,0.00,WeatherDisplay:10.37,2013-07-16 20:54:00,
2013-07-16 15:57:00,93.1,66.6,30.24,West,271,6.2,9.2,42,0.00,CLR,,0.00,WeatherDisplay:10.37,2013-07-16 20:57:00,
2013-07-16 15:58:00,93.0,67.2,30.24,WSW,240,3.3,8.1,43,0.00,CLR,,0.00,WeatherDisplay:10.37,2013-07-16 20:58:00,
2013-07-16 15:59:00,93.0,67.2,30.24,SSW,193,5.6,9.2,43,0.00,CLR,,0.00,WeatherDisplay:10.37,2013-07-16 20:59:00,
2013-07-16 16:02:00,93.1,66.6,30.24,WSW,243,6.1,8.1,42,0.00,CLR,,0.00,WeatherDisplay:10.37,2013-07-16 21:02:00,
2013-07-16 16:03:00,93.2,67.4,30.24,SW,229,3.6,8.1,43,0.00,CLR,,0.00,WeatherDisplay:10.37,2013-07-16 21:03:00,
2013-07-16 16:05:00,93.2,68.0,30.24,WSW,251,4.0,7.8,44,0.00,CLR,,0.00,WeatherDisplay:10.37,2013-07-16 21:05:00,
2013-07-16 16:07:00,93.2,66.7,30.24,WSW,241,5.7,9.2,42,0.00,CLR,,0.00,WeatherDisplay:10.37,2013-07-16 21:07:00,
2013-07-16 16:08:00,93.3,66.8,30.24,WSW,251,6.2,10.4,42,0.00,CLR,,0.00,WeatherDisplay:10.37,2013-07-16 21:08:00,
2013-07-16 16:11:00,93.5,67.0,30.24,SW,220,4.8,6.9,42,0.00,CLR,,0.00,WeatherDisplay:10.37,2013-07-16 21:11:00,
2013-07-16 16:12:00,93.3,66.8,30.24,WSW,241,4.3,6.9,42,0.00,CLR,,0.00,WeatherDisplay:10.37,2013-07-16 21:12:00,
2013-07-16 16:13:00,93.2,66.7,30.24,NW,304,3.3,5.8,42,0.00,CLR,,0.00,WeatherDisplay:10.37,2013-07-16 21:13:00,
2013-07-16 16:16:00,92.8,66.3,30.24,West,272,4.1,5.8,42,0.00,CLR,,0.00,WeatherDisplay:10.37,2013-07-16 21:16:00,
2013-07-16 16:17:00,92.5,66.7,30.24,West,265,1.9,7.2,43,0.00,CLR,,0.00,WeatherDisplay:10.37,2013-07-16 21:17:00,
2013-07-16 16:18:00,92.7,66.9,30.23,SW,216,3.2,6.9,43,0.00,CLR,,0.00,WeatherDisplay:10.37,2013-07-16 21:18:00,
2013-07-16 16:21:00,92.1,67.1,30.23,SW,224,3.0,5.8,44,0.00,CLR,,0.00,WeatherDisplay:10.37,2013-07-16 21:21:00,
2013-07-16 16:22:00,92.1,67.1,30.23,NW,319,2.4,5.8,44,0.00,CLR,,0.00,WeatherDisplay:10.37,2013-07-16 21:22:00,
2013-07-16 16:23:00,92.0,67.0,30.23,WSW,247,3.7,6.9,44,0.00,CLR,,0.00,WeatherDisplay:10.37,2013-07-16 21:23:00,
2013-07-16 16:24:00,92.1,67.1,30.23,West,263,4.6,8.1,44,0.00,CLR,,0.00,WeatherDisplay:10.37,2013-07-16 21:24:00,
2013-07-16 16:26:00,92.2,67.1,30.23,SW,222,5.6,6.9,44,0.00,CLR,,0.00,WeatherDisplay:10.37,2013-07-16 21:26:00,
2013-07-16 16:28:00,92.2,67.1,30.23,WSW,237,5.4,8.1,44,0.00,CLR,,0.00,WeatherDisplay:10.37,2013-07-16 21:28:00,
2013-07-16 16:29:00,92.3,67.9,30.23,WNW,298,3.8,6.9,45,0.00,CLR,,0.00,WeatherDisplay:10.37,2013-07-16 21:29:00,
2013-07-16 16:31:00,92.5,68.1,30.23,West,278,3.9,8.6,45,0.00,CLR,,0.00,WeatherDisplay:10.37,2013-07-16 21:31:00,
2013-07-16 16:33:00,92.8,67.0,30.23,WSW,243,6.9,9.2,43,0.00,CLR,,0.00,WeatherDisplay:10.37,2013-07-16 21:33:00,
2013-07-16 16:34:00,92.8,67.7,30.23,WSW,247,4.0,10.4,44,0.00,CLR,,0.00,WeatherDisplay:10.37,2013-07-16 21:34:00,
2013-07-16 16:36:00,93.0,67.9,30.23,West,274,4.8,6.9,44,0.00,CLR,,0.00,WeatherDisplay:10.37,2013-07-16 21:36:00,
2013-07-16 16:38:00,93.0,67.9,30.23,SSW,206,2.9,4.6,44,0.00,CLR,,0.00,WeatherDisplay:10.37,2013-07-16 21:38:00,
2013-07-16 16:39:00,93.1,68.0,30.23,SW,229,3.7,5.8,44,0.00,CLR,,0.00,WeatherDisplay:10.37,2013-07-16 21:39:00,
2013-07-16 16:40:00,93.1,68.0,30.23,WSW,257,5.7,9.2,44,0.00,CLR,,0.00,WeatherDisplay:10.37,2013-07-16 21:40:00,
2013-07-16 16:42:00,93.2,66.7,30.23,WSW,246,4.4,9.2,42,0.00,CLR,,0.00,WeatherDisplay:10.37,2013-07-16 21:42:00,
2013-07-16 16:43:00,93.2,66.7,30.23,SW,226,4.8,5.8,42,0.00,CLR,,0.00,WeatherDisplay:10.37,2013-07-16 21:43:00,
2013-07-16 16:44:00,93.2,66.7,30.23,SW,215,6.1,6.9,42,0.00,CLR,,0.00,WeatherDisplay:10.37,2013-07-16 21:44:00,
2013-07-16 16:45:00,93.2,66.7,30.23,WSW,250,1.6,9.2,42,0.00,CLR,,0.00,WeatherDisplay:10.37,2013-07-16 21:45:00,
2013-07-16 16:47:00,93.3,66.8,30.23,WNW,289,1.9,5.8,42,0.00,CLR,,0.00,WeatherDisplay:10.37,2013-07-16 21:47:00,
2013-07-16 16:48:00,93.4,67.6,30.23,West,277,3.6,6.9,43,0.00,CLR,,0.00,WeatherDisplay:10.37,2013-07-16 21:48:00,
2013-07-16 16:49:00,93.2,66.7,30.23,West,263,2.9,6.9,42,0.00,CLR,,0.00,WeatherDisplay:10.37,2013-07-16 21:49:00,
2013-07-16 16:50:00,93.4,66.9,30.23,SSW,200,2.3,4.6,42,0.00,CLR,,0.00,WeatherDisplay:10.37,2013-07-16 21:50:00,
2013-07-16 16:52:00,93.4,67.6,30.23,WNW,282,5.1,6.9,43,0.00,CLR,,0.00,WeatherDisplay:10.37,2013-07-16 21:52:00,
2013-07-16 16:53:00,93.4,66.9,30.23,SW,215,4.9,6.6,42,0.00,CLR,,0.00,WeatherDisplay:10.37,2013-07-16 21:53:00,
2013-07-16 16:54:00,93.7,67.1,30.23,WSW,239,5.6,8.1,42,0.00,CLR,,0.00,WeatherDisplay:10.37,2013-07-16 21:54:00,
2013-07-16 16:56:00,93.8,67.2,30.23,SSW,205,3.9,6.1,42,0.00,CLR,,0.00,WeatherDisplay:10.37,2013-07-16 21:56:00,
2013-07-16 16:57:00,93.5,67.6,30.23,NNW,330,3.0,6.9,43,0.00,CLR,,0.00,WeatherDisplay:10.37,2013-07-16 21:57:00,
2013-07-16 16:58:00,93.8,67.2,30.23,WSW,257,6.4,11.1,42,0.00,CLR,,0.00,WeatherDisplay:10.37,2013-07-16 21:58:00,
2013-07-16 16:59:00,93.8,67.2,30.23,West,261,6.4,9.2,42,0.00,CLR,,0.00,WeatherDisplay:10.37,2013-07-16 21:59:00,
2013-07-16 17:00:00,93.7,67.1,30.23,West,280,4.1,9.2,42,0.00,CLR,,0.00,WeatherDisplay:10.37,2013-07-16 22:00:00,
2013-07-16 17:01:00,93.8,67.2,30.23,SW,229,4.0,5.8,42,0.00,CLR,,0.00,WeatherDisplay:10.37,2013-07-16 22:01:00,
2013-07-16 17:02:00,93.7,67.1,30.23,SSW,206,3.5,4.6,42,0.00,CLR,,0.00,WeatherDisplay:10.37,2013-07-16 22:02:00,
2013-07-16 17:03:00,93.7,67.1,30.23,NNE,30,3.0,4.6,42,0.00,CLR,,0.00,WeatherDisplay:10.37,2013-07-16 22:03:00,
2013-07-16 17:05:00,93.7,67.1,30.23,WSW,247,4.8,8.1,42,0.00,CLR,,0.00,WeatherDisplay:10.37,2013-07-16 22:05:00,
2013-07-16 17:06:00,93.5,67.0,30.23,SW,224,3.9,5.8,42,0.00,CLR,,0.00,WeatherDisplay:10.37,2013-07-16 22:06:00,
2013-07-16 17:07:00,93.5,67.0,30.23,WSW,256,3.7,6.0,42,0.00,CLR,,0.00,WeatherDisplay:10.37,2013-07-16 22:07:00,
2013-07-16 17:08:00,93.5,67.0,30.23,WSW,258,5.7,8.1,42,0.00,CLR,,0.00,WeatherDisplay:10.37,2013-07-16 22:08:00,
2013-07-16 17:10:00,93.2,66.7,30.23,West,264,5.4,7.0,42,0.00,CLR,,0.00,WeatherDisplay:10.37,2013-07-16 22:10:00,
2013-07-16 17:11:00,93.2,66.7,30.23,WSW,258,4.9,6.9,42,0.00,CLR,,0.00,WeatherDisplay:10.37,2013-07-16 22:11:00,
2013-07-16 17:12:00,93.1,67.3,30.23,West,260,1.8,4.6,43,0.00,CLR,,0.00,WeatherDisplay:10.37,2013-07-16 22:12:00,
2013-07-16 17:13:00,92.9,67.1,30.23,SW,234,3.1,5.8,43,0.00,CLR,,0.00,WeatherDisplay:10.37,2013-07-16 22:13:00,
2013-07-16 17:15:00,92.7,66.9,30.23,SW,220,3.4,5.8,43,0.00,CLR,,0.00,WeatherDisplay:10.37,2013-07-16 22:15:00,
2013-07-16 17:16:00,92.4,67.3,30.23,SW,216,3.2,5.8,44,0.00,CLR,,0.00,WeatherDisplay:10.37,2013-07-16 22:16:00,
2013-07-16 17:17:00,92.5,67.4,30.23,WSW,240,2.9,4.6,44,0.00,CLR,,0.00,WeatherDisplay:10.37,2013-07-16 22:17:00,
2013-07-16 17:19:00,92.4,67.3,30.23,SW,222,3.5,4.6,44,0.00,CLR,,0.00,WeatherDisplay:10.37,2013-07-16 22:19:00,
2013-07-16 17:20:00,92.2,67.1,30.23,South,191,2.1,3.5,44,0.00,CLR,,0.00,WeatherDisplay:10.37,2013-07-16 22:20:00,
2013-07-16 17:21:00,92.1,67.1,30.23,SW,230,3.4,5.8,44,0.00,CLR,,0.00,WeatherDisplay:10.37,2013-07-16 22:21:00,
2013-07-16 17:22:00,92.2,67.8,30.23,South,184,3.4,5.8,45,0.00,CLR,,0.00,WeatherDisplay:10.37,2013-07-16 22:22:00,
2013-07-16 17:23:00,92.1,67.7,30.22,SW,229,3.2,5.8,45,0.00,CLR,,0.00,WeatherDisplay:10.37,2013-07-16 22:23:00,
2013-07-16 17:24:00,92.0,67.0,30.22,West,260,3.5,5.8,44,0.00,CLR,,0.00,WeatherDisplay:10.37,2013-07-16 22:24:00,
2013-07-16 17:25:00,92.0,67.0,30.23,WSW,254,2.9,5.8,44,0.00,CLR,,0.00,WeatherDisplay:10.37,2013-07-16 22:25:00,
2013-07-16 17:26:00,91.9,66.9,30.23,West,274,4.8,6.9,44,0.00,CLR,,0.00,WeatherDisplay:10.37,2013-07-16 22:26:00,
2013-07-16 17:27:00,91.8,66.8,30.23,WNW,288,4.2,6.9,44,0.00,CLR,,0.00,WeatherDisplay:10.37,2013-07-16 22:27:00,
2013-07-16 17:29:00,91.7,67.3,30.23,SW,222,1.2,5.8,45,0.00,CLR,,0.00,WeatherDisplay:10.37,2013-07-16 22:29:00,
2013-07-16 17:31:00,91.4,67.1,30.23,WSW,246,4.6,9.2,45,0.00,CLR,,0.00,WeatherDisplay:10.37,2013-07-16 22:31:00,
2013-07-16 17:32:00,91.3,67.0,30.22,WSW,257,5.6,9.2,45,0.00,CLR,,0.00,WeatherDisplay:10.37,2013-07-16 22:32:00,
2013-07-16 17:34:00,90.9,66.6,30.22,SW,233,3.8,6.9,45,0.00,CLR,,0.00,WeatherDisplay:10.37,2013-07-16 22:34:00,
2013-07-16 17:36:00,90.8,67.2,30.23,WSW,240,4.2,6.9,46,0.00,CLR,,0.00,WeatherDisplay:10.37,2013-07-16 22:36:00,
2013-07-16 17:37:00,90.7,67.1,30.23,SW,234,2.5,5.8,46,0.00,CLR,,0.00,WeatherDisplay:10.37,2013-07-16 22:37:00,
2013-07-16 17:39:00,90.5,67.5,30.23,NW,319,2.8,5.8,47,0.00,CLR,,0.00,WeatherDisplay:10.37,2013-07-16 22:39:00,
2013-07-16 17:41:00,90.2,66.6,30.23,West,270,4.6,6.9,46,0.00,CLR,,0.00,WeatherDisplay:10.37,2013-07-16 22:41:00,
2013-07-16 17:42:00,90.1,66.5,30.23,WSW,253,4.8,6.9,46,0.00,CLR,,0.00,WeatherDisplay:10.37,2013-07-16 22:42:00,
2013-07-16 17:43:00,90.0,67.1,30.23,SSW,199,6.0,8.1,47,0.00,CLR,,0.00,WeatherDisplay:10.37,2013-07-16 22:43:00,
2013-07-16 17:44:00,89.9,67.0,30.23,WSW,257,3.9,8.1,47,0.00,CLR,,0.00,WeatherDisplay:10.37,2013-07-16 22:44:00,
2013-07-16 17:46:00,89.6,67.3,30.23,West,265,4.4,9.2,48,0.00,CLR,,0.00,WeatherDisplay:10.37,2013-07-16 22:46:00,
2013-07-16 17:47:00,89.5,67.2,30.23,WSW,254,3.0,6.9,48,0.00,CLR,,0.00,WeatherDisplay:10.37,2013-07-16 22:47:00,
2013-07-16 17:48:00,89.6,67.3,30.23,SW,232,2.1,4.6,48,0.00,CLR,,0.00,WeatherDisplay:10.37,2013-07-16 22:48:00,
2013-07-16 17:49:00,89.3,67.0,30.23,SW,227,1.5,5.8,48,0.00,CLR,,0.00,WeatherDisplay:10.37,2013-07-16 22:49:00,
2013-07-16 17:50:00,89.4,67.1,30.23,WSW,240,3.7,5.8,48,0.00,CLR,,0.00,WeatherDisplay:10.37,2013-07-16 22:50:00,
2013-07-16 17:51:00,89.3,67.0,30.23,SW,215,3.8,5.8,48,0.00,CLR,,0.00,WeatherDisplay:10.37,2013-07-16 22:51:00,
2013-07-16 17:52:00,89.3,67.0,30.23,SW,215,5.1,5.8,48,0.00,CLR,,0.00,WeatherDisplay:10.37,2013-07-16 22:52:00,
2013-07-16 17:53:00,89.4,67.1,30.23,SW,224,4.7,8.1,48,0.00,CLR,,0.00,WeatherDisplay:10.37,2013-07-16 22:53:00,
2013-07-16 17:54:00,89.2,67.5,30.23,WSW,253,2.8,4.6,49,0.00,CLR,,0.00,WeatherDisplay:10.37,2013-07-16 22:54:00,
2013-07-16 17:55:00,89.1,67.5,30.23,SSW,205,2.2,5.8,49,0.00,CLR,,0.00,WeatherDisplay:10.37,2013-07-16 22:55:00,
2013-07-16 17:56:00,89.2,67.5,30.23,SW,222,1.6,4.7,49,0.00,CLR,,0.00,WeatherDisplay:10.37,2013-07-16 22:56:00,
2013-07-16 17:57:00,89.0,67.4,30.22,West,263,3.8,7.8,49,0.00,CLR,,0.00,WeatherDisplay:10.37,2013-07-16 22:57:00,
2013-07-16 17:58:00,89.1,67.5,30.22,WSW,240,3.8,8.1,49,0.00,CLR,,0.00,WeatherDisplay:10.37,2013-07-16 22:58:00,
2013-07-16 18:00:00,89.0,67.4,30.22,WSW,250,4.8,9.2,49,0.00,CLR,,0.00,WeatherDisplay:10.37,2013-07-16 23:00:00,
2013-07-16 18:02:00,89.0,67.4,30.23,SW,219,4.2,5.8,49,0.00,CLR,,0.00,WeatherDisplay:10.37,2013-07-16 23:02:00,
2013-07-16 18:03:00,88.8,66.6,30.23,SW,233,4.7,6.9,48,0.00,CLR,,0.00,WeatherDisplay:10.37,2013-07-16 23:03:00,
2013-07-16 18:05:00,88.8,66.6,30.23,SW,229,2.5,5.8,48,0.00,CLR,,0.00,WeatherDisplay:10.37,2013-07-16 23:05:00,
2013-07-16 18:07:00,88.7,67.1,30.22,WNW,302,0.8,2.3,49,0.00,CLR,,0.00,WeatherDisplay:10.37,2013-07-16 23:07:00,
2013-07-16 18:08:00,88.7,67.1,30.22,WNW,302,0.7,2.3,49,0.00,CLR,,0.00,WeatherDisplay:10.37,2013-07-16 23:08:00,
2013-07-16 18:10:00,88.7,67.1,30.22,SW,223,5.0,6.9,49,0.00,CLR,,0.00,WeatherDisplay:10.37,2013-07-16 23:10:00,
2013-07-16 18:11:00,88.5,66.9,30.22,SW,226,2.8,6.9,49,0.00,CLR,,0.00,WeatherDisplay:10.37,2013-07-16 23:11:00,
2013-07-16 18:12:00,88.4,66.8,30.22,West,260,4.1,6.9,49,0.00,CLR,,0.00,WeatherDisplay:10.37,2013-07-16 23:12:00,
2013-07-16 18:13:00,88.4,66.8,30.22,SW,233,4.3,6.9,49,0.00,CLR,,0.00,WeatherDisplay:10.37,2013-07-16 23:13:00,
2013-07-16 18:15:00,88.3,66.7,30.22,SW,227,4.5,6.9,49,0.00,CLR,,0.00,WeatherDisplay:10.37,2013-07-16 23:15:00,
2013-07-16 18:16:00,88.1,66.5,30.23,WNW,289,2.5,6.9,49,0.00,CLR,,0.00,WeatherDisplay:10.37,2013-07-16 23:16:00,
2013-07-16 18:18:00,88.0,67.0,30.23,WSW,258,3.2,8.1,50,0.00,CLR,,0.00,WeatherDisplay:10.37,2013-07-16 23:18:00,
2013-07-16 18:19:00,88.0,67.0,30.23,NNW,339,0.5,3.5,50,0.00,CLR,,0.00,WeatherDisplay:10.37,2013-07-16 23:19:00,
2013-07-16 18:21:00,87.9,66.9,30.22,West,271,3.0,6.9,50,0.00,CLR,,0.00,WeatherDisplay:10.37,2013-07-16 23:21:00,
2013-07-16 18:23:00,87.8,66.8,30.22,West,264,2.5,5.8,50,0.00,CLR,,0.00,WeatherDisplay:10.37,2013-07-16 23:23:00,
2013-07-16 18:24:00,87.7,66.8,30.22,WSW,247,4.2,6.9,50,0.00,CLR,,0.00,WeatherDisplay:10.37,2013-07-16 23:24:00,
2013-07-16 18:26:00,87.6,66.7,30.22,WSW,244,1.6,4.6,50,0.00,CLR,,0.00,WeatherDisplay:10.37,2013-07-16 23:26:00,
2013-07-16 18:28:00,87.6,66.7,30.22,WSW,251,0.0,2.3,50,0.00,CLR,,0.00,WeatherDisplay:10.37,2013-07-16 23:28:00,
2013-07-16 18:29:00,87.5,67.1,30.22,WSW,248,3.6,6.9,51,0.00,CLR,,0.00,WeatherDisplay:10.37,2013-07-16 23:29:00,
2013-07-16 18:31:00,87.4,67.1,30.23,West,267,0.8,3.5,51,0.00,CLR,,0.00,WeatherDisplay:10.37,2013-07-16 23:31:00,
2013-07-16 18:33:00,87.3,67.5,30.22,SW,230,1.8,3.5,52,0.00,CLR,,0.00,WeatherDisplay:10.37,2013-07-16 23:33:00,
2013-07-16 18:34:00,87.2,67.4,30.22,SSW,208,2.7,3.5,52,0.00,CLR,,0.00,WeatherDisplay:10.37,2013-07-16 23:34:00,
2013-07-16 18:36:00,87.2,67.4,30.22,WSW,240,3.4,8.1,52,0.00,CLR,,0.00,WeatherDisplay:10.37,2013-07-16 23:36:00,
2013-07-16 18:37:00,87.3,67.5,30.22,WSW,237,2.8,4.6,52,0.00,CLR,,0.00,WeatherDisplay:10.37,2013-07-16 23:37:00,
2013-07-16 18:38:00,87.2,67.4,30.22,WSW,253,0.0,0.0,52,0.00,CLR,,0.00,WeatherDisplay:10.37,2013-07-16 23:38:00,
2013-07-16 18:39:00,87.1,67.3,30.22,WSW,253,0.0,0.0,52,0.00,CLR,,0.00,WeatherDisplay:10.37,2013-07-16 23:39:00,
2013-07-16 18:41:00,87.0,67.2,30.22,West,260,2.5,8.1,52,0.00,CLR,,0.00,WeatherDisplay:10.37,2013-07-16 23:41:00,
2013-07-16 18:42:00,87.1,67.3,30.22,SW,219,1.9,5.8,52,0.00,CLR,,0.00,WeatherDisplay:10.37,2013-07-16 23:42:00,
2013-07-16 18:43:00,87.1,67.3,30.22,West,272,1.9,2.9,52,0.00,CLR,,0.00,WeatherDisplay:10.37,2013-07-16 23:43:00,
2013-07-16 18:44:00,87.1,67.3,30.22,WSW,247,2.7,7.5,52,0.00,CLR,,0.00,WeatherDisplay:10.37,2013-07-16 23:44:00,
2013-07-16 18:45:00,87.0,67.2,30.22,WNW,296,4.9,6.9,52,0.00,CLR,,0.00,WeatherDisplay:10.37,2013-07-16 23:45:00,
2013-07-16 18:46:00,86.9,67.2,30.22,SSW,208,3.9,8.1,52,0.00,CLR,,0.00,WeatherDisplay:10.37,2013-07-16 23:46:00,
2013-07-16 18:47:00,87.0,67.2,30.22,WNW,298,3.0,8.1,52,0.00,CLR,,0.00,WeatherDisplay:10.37,2013-07-16 23:47:00,
2013-07-16 18:49:00,86.9,67.2,30.22,WSW,244,1.4,3.5,52,0.00,CLR,,0.00,WeatherDisplay:10.37,2013-07-16 23:49:00,
2013-07-16 18:50:00,87.0,67.8,30.22,West,268,1.3,3.5,53,0.00,CLR,,0.00,WeatherDisplay:10.37,2013-07-16 23:50:00,
2013-07-16 18:52:00,86.8,67.6,30.22,SW,222,3.0,5.8,53,0.00,CLR,,0.00,WeatherDisplay:10.37,2013-07-16 23:52:00,
2013-07-16 18:54:00,86.9,67.7,30.22,WSW,247,2.8,4.6,53,0.00,CLR,,0.00,WeatherDisplay:10.37,2013-07-16 23:54:00,
2013-07-16 18:55:00,86.8,67.6,30.22,SW,219,2.5,4.7,53,0.00,CLR,,0.00,WeatherDisplay:10.37,2013-07-16 23:55:00,
2013-07-16 18:57:00,86.8,67.6,30.22,WSW,240,3.7,5.8,53,0.00,CLR,,0.00,WeatherDisplay:10.37,2013-07-16 23:57:00,
2013-07-16 18:59:00,86.7,67.5,30.22,West,272,2.7,4.6,53,0.00,CLR,,0.00,WeatherDisplay:10.37,2013-07-16 23:59:00,
2013-07-16 19:00:00,86.7,67.5,30.22,SSW,212,2.9,3.5,53,0.00,CLR,,0.00,WeatherDisplay:10.37,2013-07-17 00:00:00,
2013-07-16 19:02:00,86.5,67.3,30.22,WSW,244,3.0,4.8,53,0.00,CLR,,0.00,WeatherDisplay:10.37,2013-07-17 00:02:00,
2013-07-16 19:03:00,86.6,67.4,30.22,WSW,239,3.6,4.6,53,0.00,CLR,,0.00,WeatherDisplay:10.37,2013-07-17 00:03:00,
2013-07-16 19:04:00,86.6,67.4,30.22,SW,226,3.7,4.6,53,0.00,CLR,,0.00,WeatherDisplay:10.37,2013-07-17 00:04:00,
2013-07-16 19:05:00,86.5,67.3,30.22,WSW,244,3.0,5.8,53,0.00,CLR,,0.00,WeatherDisplay:10.37,2013-07-17 00:05:00,
2013-07-16 19:07:00,86.4,67.2,30.22,SW,216,1.9,4.6,53,0.00,CLR,,0.00,WeatherDisplay:10.37,2013-07-17 00:07:00,
2013-07-16 19:08:00,86.5,67.3,30.22,SW,227,1.7,3.5,53,0.00,CLR,,0.00,WeatherDisplay:10.37,2013-07-17 00:08:00,
2013-07-16 19:09:00,86.5,67.9,30.23,SSW,198,2.2,3.5,54,0.00,CLR,,0.00,WeatherDisplay:10.37,2013-07-17 00:09:00,
2013-07-16 19:10:00,86.4,67.8,30.23,WSW,239,2.2,3.5,54,0.00,CLR,,0.00,WeatherDisplay:10.37,2013-07-17 00:10:00,
2013-07-16 19:12:00,86.3,67.7,30.22,WSW,239,1.6,1.6,54,0.00,CLR,,0.00,WeatherDisplay:10.37,2013-07-17 00:12:00,
2013-07-16 19:13:00,86.4,67.8,30.22,SW,229,2.0,4.6,54,0.00,CLR,,0.00,WeatherDisplay:10.37,2013-07-17 00:13:00,
2013-07-16 19:14:00,86.2,67.6,30.22,SW,229,0.0,0.0,54,0.00,CLR,,0.00,WeatherDisplay:10.37,2013-07-17 00:14:00,
2013-07-16 19:15:00,86.3,67.7,30.22,SW,229,0.0,0.0,54,0.00,CLR,,0.00,WeatherDisplay:10.37,2013-07-17 00:15:00,
2013-07-16 19:18:00,86.2,67.6,30.22,WSW,244,0.2,2.3,54,0.00,CLR,,0.00,WeatherDisplay:10.37,2013-07-17 00:18:00,
2013-07-16 19:20:00,86.0,68.0,30.22,WSW,244,0.0,0.0,55,0.00,CLR,,0.00,WeatherDisplay:10.37,2013-07-17 00:20:00,
2013-07-16 19:21:00,86.1,67.5,30.22,WSW,244,0.0,0.0,54,0.00,CLR,,0.00,WeatherDisplay:10.37,2013-07-17 00:21:00,
2013-07-16 19:23:00,86.0,68.0,30.23,WSW,244,0.0,0.0,55,0.00,CLR,,0.00,WeatherDisplay:10.37,2013-07-17 00:23:00,
2013-07-16 19:25:00,85.9,67.9,30.22,WSW,244,0.0,0.0,55,0.00,CLR,,0.00,WeatherDisplay:10.37,2013-07-17 00:25:00,
2013-07-16 19:26:00,85.8,67.8,30.22,WSW,244,0.0,0.0,55,0.00,CLR,,0.00,WeatherDisplay:10.37,2013-07-17 00:26:00,
2013-07-16 19:28:00,85.7,68.2,30.22,WSW,244,0.0,0.0,56,0.00,CLR,,0.00,WeatherDisplay:10.37,2013-07-17 00:28:00,
2013-07-16 19:30:00,85.7,68.2,30.22,WSW,244,0.0,0.0,56,0.00,CLR,,0.00,WeatherDisplay:10.37,2013-07-17 00:30:00,
2013-07-16 19:31:00,85.6,68.1,30.23,WSW,244,0.0,0.0,56,0.00,CLR,,0.00,WeatherDisplay:10.37,2013-07-17 00:31:00,
2013-07-16 19:33:00,85.5,68.0,30.23,WSW,244,0.0,0.0,56,0.00,CLR,,0.00,WeatherDisplay:10.37,2013-07-17 00:33:00,
2013-07-16 19:35:00,85.5,68.0,30.22,SW,232,1.4,3.5,56,0.00,CLR,,0.00,WeatherDisplay:10.37,2013-07-17 00:35:00,
2013-07-16 19:36:00,85.4,68.4,30.22,SW,234,2.5,5.2,57,0.00,CLR,,0.00,WeatherDisplay:10.37,2013-07-17 00:36:00,
2013-07-16 19:38:00,85.3,68.3,30.22,West,278,2.8,4.6,57,0.00,CLR,,0.00,WeatherDisplay:10.37,2013-07-17 00:38:00,
2013-07-16 19:40:00,85.3,68.3,30.22,WSW,240,1.8,4.6,57,0.00,CLR,,0.00,WeatherDisplay:10.37,2013-07-17 00:40:00,
2013-07-16 19:42:00,85.2,68.2,30.22,WSW,256,3.1,4.6,57,0.00,CLR,,0.00,WeatherDisplay:10.37,2013-07-17 00:42:00,
2013-07-16 19:43:00,85.1,68.2,30.22,WSW,247,2.7,4.6,57,0.00,CLR,,0.00,WeatherDisplay:10.37,2013-07-17 00:43:00,
2013-07-16 19:45:00,84.9,68.0,30.22,West,268,2.6,4.6,57,0.00,CLR,,0.00,WeatherDisplay:10.37,2013-07-17 00:45:00,
2013-07-16 19:47:00,84.9,68.0,30.22,SW,217,2.7,3.5,57,0.00,CLR,,0.00,WeatherDisplay:10.37,2013-07-17 00:47:00,
2013-07-16 19:48:00,84.8,67.9,30.23,SW,234,1.4,3.5,57,0.00,CLR,,0.00,WeatherDisplay:10.37,2013-07-17 00:48:00,
2013-07-16 19:50:00,84.7,68.3,30.23,WSW,248,1.9,3.6,58,0.00,CLR,,0.00,WeatherDisplay:10.37,2013-07-17 00:50:00,
2013-07-16 19:52:00,84.7,68.3,30.23,SW,223,2.3,3.5,58,0.00,CLR,,0.00,WeatherDisplay:10.37,2013-07-17 00:52:00,
2013-07-16 19:53:00,84.6,68.2,30.23,SW,224,2.3,3.5,58,0.00,CLR,,0.00,WeatherDisplay:10.37,2013-07-17 00:53:00,
2013-07-16 19:55:00,84.5,68.1,30.22,SSW,209,0.0,0.0,58,0.00,CLR,,0.00,WeatherDisplay:10.37,2013-07-17 00:55:00,
2013-07-16 19:57:00,84.5,68.1,30.22,SSW,209,0.0,0.0,58,0.00,CLR,,0.00,WeatherDisplay:10.37,2013-07-17 00:57:00,
2013-07-16 19:58:00,84.4,68.0,30.22,SSW,209,0.0,0.0,58,0.00,CLR,,0.00,WeatherDisplay:10.37,2013-07-17 00:58:00,
2013-07-16 19:59:00,84.3,67.9,30.22,SSW,209,0.0,0.0,58,0.00,CLR,,0.00,WeatherDisplay:10.37,2013-07-17 00:59:00,
2013-07-16 20:01:00,84.2,67.8,30.22,SSW,209,0.0,0.0,58,0.00,CLR,,0.00,WeatherDisplay:10.37,2013-07-17 01:01:00,
2013-07-16 20:02:00,84.1,68.2,30.22,SSW,209,0.0,0.0,59,0.00,CLR,,0.00,WeatherDisplay:10.37,2013-07-17 01:02:00,
2013-07-16 20:03:00,84.0,68.1,30.22,SSW,209,0.0,0.0,59,0.00,CLR,,0.00,WeatherDisplay:10.37,2013-07-17 01:03:00,
2013-07-16 20:04:00,84.0,68.1,30.22,SSW,209,0.0,0.0,59,0.00,CLR,,0.00,WeatherDisplay:10.37,2013-07-17 01:04:00,
2013-07-16 20:06:00,84.0,68.1,30.22,SSW,209,0.0,0.0,59,0.00,CLR,,0.00,WeatherDisplay:10.37,2013-07-17 01:06:00,
2013-07-16 20:07:00,83.8,67.9,30.23,SSW,209,0.0,0.0,59,0.00,CLR,,0.00,WeatherDisplay:10.37,2013-07-17 01:07:00,
2013-07-16 20:09:00,83.7,68.3,30.22,SSW,209,0.0,0.0,60,0.00,CLR,,0.00,WeatherDisplay:10.37,2013-07-17 01:09:00,
2013-07-16 20:11:00,83.7,68.3,30.22,SSW,209,0.0,0.0,60,0.00,CLR,,0.00,WeatherDisplay:10.37,2013-07-17 01:11:00,
2013-07-16 20:13:00,83.6,68.2,30.22,SSW,209,0.0,0.0,60,0.00,CLR,,0.00,WeatherDisplay:10.37,2013-07-17 01:13:00,
2013-07-16 20:14:00,83.5,68.2,30.22,SSW,209,0.0,0.0,60,0.00,CLR,,0.00,WeatherDisplay:10.37,2013-07-17 01:14:00,
2013-07-16 20:16:00,83.4,68.5,30.22,SSW,209,0.0,0.0,61,0.00,CLR,,0.00,WeatherDisplay:10.37,2013-07-17 01:16:00,
2013-07-16 20:18:00,83.4,68.5,30.22,SSW,209,0.0,0.0,61,0.00,CLR,,0.00,WeatherDisplay:10.37,2013-07-17 01:18:00,
2013-07-16 20:19:00,83.4,68.5,30.22,SSW,209,0.0,0.0,61,0.00,CLR,,0.00,WeatherDisplay:10.37,2013-07-17 01:19:00,
2013-07-16 20:21:00,83.2,68.3,30.22,SSW,209,0.0,0.0,61,0.00,CLR,,0.00,WeatherDisplay:10.37,2013-07-17 01:21:00,
2013-07-16 20:23:00,83.0,68.2,30.22,SW,233,2.1,2.4,61,0.00,CLR,,0.00,WeatherDisplay:10.37,2013-07-17 01:23:00,
2013-07-16 20:24:00,83.0,68.6,30.22,SW,226,1.7,2.3,62,0.00,CLR,,0.00,WeatherDisplay:10.37,2013-07-17 01:24:00,
2013-07-16 20:26:00,82.8,68.4,30.22,SSW,205,2.0,2.3,62,0.00,CLR,,0.00,WeatherDisplay:10.37,2013-07-17 01:26:00,
2013-07-16 20:28:00,82.6,68.3,30.22,SW,229,1.8,2.3,62,0.00,CLR,,0.00,WeatherDisplay:10.37,2013-07-17 01:28:00,
2013-07-16 20:29:00,82.5,68.2,30.22,SSW,208,0.1,2.3,62,0.00,CLR,,0.00,WeatherDisplay:10.37,2013-07-17 01:29:00,
2013-07-16 20:30:00,82.5,68.2,30.22,SW,236,2.2,2.4,62,0.00,CLR,,0.00,WeatherDisplay:10.37,2013-07-17 01:30:00,
2013-07-16 20:31:00,82.4,68.1,30.22,SW,217,1.9,3.5,62,0.00,CLR,,0.00,WeatherDisplay:10.37,2013-07-17 01:31:00,
2013-07-16 20:33:00,82.4,68.5,30.22,SSW,209,2.7,3.5,63,0.00,CLR,,0.00,WeatherDisplay:10.37,2013-07-17 01:33:00,
2013-07-16 20:34:00,82.3,68.4,30.22,WSW,237,2.5,3.5,63,0.00,CLR,,0.00,WeatherDisplay:10.37,2013-07-17 01:34:00,
2013-07-16 20:35:00,82.2,68.3,30.22,SW,234,2.7,3.5,63,0.00,CLR,,0.00,WeatherDisplay:10.37,2013-07-17 01:35:00,
2013-07-16 20:36:00,82.1,68.3,30.22,SSW,212,2.8,3.5,63,0.00,CLR,,0.00,WeatherDisplay:10.37,2013-07-17 01:36:00,
2013-07-16 20:38:00,82.1,68.3,30.22,WSW,243,3.1,4.3,63,0.00,CLR,,0.00,WeatherDisplay:10.37,2013-07-17 01:38:00,
2013-07-16 20:39:00,81.9,68.1,30.22,WSW,256,2.3,4.6,63,0.00,CLR,,0.00,WeatherDisplay:10.37,2013-07-17 01:39:00,
2013-07-16 20:40:00,81.8,68.4,30.22,WSW,244,2.4,3.5,64,0.00,CLR,,0.00,WeatherDisplay:10.37,2013-07-17 01:40:00,
2013-07-16 20:41:00,81.9,68.5,30.22,SW,219,2.6,3.5,64,0.00,CLR,,0.00,WeatherDisplay:10.37,2013-07-17 01:41:00,
2013-07-16 20:43:00,81.8,68.4,30.22,SW,232,1.9,3.5,64,0.00,CLR,,0.00,WeatherDisplay:10.37,2013-07-17 01:43:00,
2013-07-16 20:45:00,81.6,68.2,30.22,SW,219,3.5,5.8,64,0.00,CLR,,0.00,WeatherDisplay:10.37,2013-07-17 01:45:00,
2013-07-16 20:46:00,81.6,68.2,30.22,SW,226,3.5,5.8,64,0.00,CLR,,0.00,WeatherDisplay:10.37,2013-07-17 01:46:00,
2013-07-16 20:48:00,81.5,68.1,30.22,WSW,244,2.5,3.5,64,0.00,CLR,,0.00,WeatherDisplay:10.37,2013-07-17 01:48:00,
2013-07-16 20:51:00,81.5,68.1,30.22,WSW,241,2.5,3.5,64,0.00,CLR,,0.00,WeatherDisplay:10.37,2013-07-17 01:51:00,
2013-07-16 20:52:00,81.4,68.1,30.22,SW,233,2.8,3.5,64,0.00,CLR,,0.00,WeatherDisplay:10.37,2013-07-17 01:52:00,
2013-07-16 20:53:00,81.3,68.0,30.22,SW,234,2.1,4.6,64,0.00,CLR,,0.00,WeatherDisplay:10.37,2013-07-17 01:53:00,
2013-07-16 20:55:00,81.3,68.4,30.23,SW,226,2.3,4.6,65,0.00,CLR,,0.00,WeatherDisplay:10.37,2013-07-17 01:55:00,
2013-07-16 20:56:00,81.3,68.4,30.23,SW,229,2.8,3.6,65,0.00,CLR,,0.00,WeatherDisplay:10.37,2013-07-17 01:56:00,
2013-07-16 20:57:00,81.2,68.3,30.23,SW,233,2.1,4.6,65,0.00,CLR,,0.00,WeatherDisplay:10.37,2013-07-17 01:57:00,
2013-07-16 20:59:00,81.1,68.2,30.22,SW,220,2.5,2.9,65,0.00,CLR,,0.00,WeatherDisplay:10.37,2013-07-17 01:59:00,
2013-07-16 21:00:00,80.8,67.9,30.23,SW,233,2.4,4.6,65,0.00,CLR,,0.00,WeatherDisplay:10.37,2013-07-17 02:00:00,
2013-07-16 21:01:00,80.9,68.0,30.23,SW,229,2.7,4.6,65,0.00,CLR,,0.00,WeatherDisplay:10.37,2013-07-17 02:01:00,
2013-07-16 21:02:00,80.8,67.9,30.23,WSW,239,2.6,3.5,65,0.00,CLR,,0.00,WeatherDisplay:10.37,2013-07-17 02:02:00,
2013-07-16 21:04:00,80.6,68.2,30.23,SW,223,2.4,3.5,66,0.00,CLR,,0.00,WeatherDisplay:10.37,2013-07-17 02:04:00,
2013-07-16 21:05:00,80.6,68.2,30.23,SW,227,3.0,4.6,66,0.00,CLR,,0.00,WeatherDisplay:10.37,2013-07-17 02:05:00,
2013-07-16 21:06:00,80.6,68.2,30.23,SW,223,3.4,4.6,66,0.00,CLR,,0.00,WeatherDisplay:10.37,2013-07-17 02:06:00,
2013-07-16 21:07:00,80.5,68.1,30.23,WSW,241,2.7,4.6,66,0.00,CLR,,0.00,WeatherDisplay:10.37,2013-07-17 02:07:00,
2013-07-16 21:08:00,80.4,68.0,30.23,West,263,2.4,3.5,66,0.00,CLR,,0.00,WeatherDisplay:10.37,2013-07-17 02:08:00,
2013-07-16 21:10:00,80.4,68.0,30.23,SW,230,2.6,3.5,66,0.00,CLR,,0.00,WeatherDisplay:10.37,2013-07-17 02:10:00,
2013-07-16 21:11:00,80.3,67.9,30.23,SW,216,1.8,3.5,66,0.00,CLR,,0.00,WeatherDisplay:10.37,2013-07-17 02:11:00,
2013-07-16 21:12:00,80.5,68.1,30.23,SSW,209,1.5,3.5,66,0.00,CLR,,0.00,WeatherDisplay:10.37,2013-07-17 02:12:00,
2013-07-16 21:13:00,80.4,68.0,30.23,WSW,248,1.4,2.3,66,0.00,CLR,,0.00,WeatherDisplay:10.37,2013-07-17 02:13:00,
2013-07-16 21:15:00,80.4,68.4,30.23,WSW,237,1.4,2.3,67,0.00,CLR,,0.00,WeatherDisplay:10.37,2013-07-17 02:15:00,
2013-07-16 21:16:00,80.3,68.3,30.23,SW,223,2.2,2.3,67,0.00,CLR,,0.00,WeatherDisplay:10.37,2013-07-17 02:16:00,
2013-07-16 21:17:00,80.2,68.2,30.23,WSW,240,2.4,2.4,67,0.00,CLR,,0.00,WeatherDisplay:10.37,2013-07-17 02:17:00,
2013-07-16 21:18:00,80.2,68.2,30.23,WSW,239,2.8,3.5,67,0.00,CLR,,0.00,WeatherDisplay:10.37,2013-07-17 02:18:00,
2013-07-16 21:20:00,80.0,68.1,30.23,SW,229,2.4,3.5,67,0.00,CLR,,0.00,WeatherDisplay:10.37,2013-07-17 02:20:00,
2013-07-16 21:21:00,79.9,68.0,30.23,SW,229,2.4,3.5,67,0.00,CLR,,0.00,WeatherDisplay:10.37,2013-07-17 02:21:00,
2013-07-16 21:22:00,80.0,68.1,30.23,SW,222,2.3,3.9,67,0.00,CLR,,0.00,WeatherDisplay:10.37,2013-07-17 02:22:00,
2013-07-16 21:23:00,80.0,68.1,30.23,SW,217,2.2,4.6,67,0.00,CLR,,0.00,WeatherDisplay:10.37,2013-07-17 02:23:00,
2013-07-16 21:26:00,79.7,68.2,30.23,SW,227,1.6,3.5,68,0.00,CLR,,0.00,WeatherDisplay:10.37,2013-07-17 02:26:00,
2013-07-16 21:27:00,79.7,68.2,30.24,WSW,237,2.1,3.5,68,0.00,CLR,,0.00,WeatherDisplay:10.37,2013-07-17 02:27:00,
2013-07-16 21:28:00,79.7,68.2,30.24,SW,224,2.3,3.5,68,0.00,CLR,,0.00,WeatherDisplay:10.37,2013-07-17 02:28:00,
2013-07-16 21:29:00,79.6,68.1,30.24,SW,227,2.0,3.5,68,0.00,CLR,,0.00,WeatherDisplay:10.37,2013-07-17 02:29:00,
2013-07-16 21:31:00,79.7,68.2,30.24,SSW,208,1.6,3.5,68,0.00,CLR,,0.00,WeatherDisplay:10.37,2013-07-17 02:31:00,
2013-07-16 21:32:00,79.5,68.0,30.24,SW,232,1.7,2.3,68,0.00,CLR,,0.00,WeatherDisplay:10.37,2013-07-17 02:32:00,
2013-07-16 21:33:00,79.5,68.0,30.24,SW,236,1.0,2.3,68,0.00,CLR,,0.00,WeatherDisplay:10.37,2013-07-17 02:33:00,
2013-07-16 21:34:00,79.5,68.0,30.24,SW,233,1.6,2.3,68,0.00,CLR,,0.00,WeatherDisplay:10.37,2013-07-17 02:34:00,
2013-07-16 21:37:00,79.4,67.9,30.24,SW,223,2.2,3.5,68,0.00,CLR,,0.00,WeatherDisplay:10.37,2013-07-17 02:37:00,
2013-07-16 21:38:00,79.3,67.8,30.24,SW,219,1.9,2.3,68,0.00,CLR,,0.00,WeatherDisplay:10.37,2013-07-17 02:38:00,
2013-07-16 21:40:00,79.5,68.4,30.24,SW,219,1.2,2.3,69,0.00,CLR,,0.00,WeatherDisplay:10.37,2013-07-17 02:40:00,
2013-07-16 21:42:00,79.3,68.2,30.24,SW,216,1.4,2.3,69,0.00,CLR,,0.00,WeatherDisplay:10.37,2013-07-17 02:42:00,
2013-07-16 21:44:00,79.3,68.2,30.24,WSW,246,2.1,3.5,69,0.00,CLR,,0.00,WeatherDisplay:10.37,2013-07-17 02:44:00,
2013-07-16 21:45:00,79.3,68.2,30.24,SSW,199,1.5,2.3,69,0.00,CLR,,0.00,WeatherDisplay:10.37,2013-07-17 02:45:00,
2013-07-16 21:47:00,79.3,68.2,30.24,SSW,198,1.2,2.3,69,0.00,CLR,,0.00,WeatherDisplay:10.37,2013-07-17 02:47:00,
2013-07-16 21:48:00,79.2,68.1,30.24,SSW,210,1.0,2.3,69,0.00,CLR,,0.00,WeatherDisplay:10.37,2013-07-17 02:48:00,
2013-07-16 21:49:00,79.2,68.1,30.24,South,186,0.3,1.2,69,0.00,CLR,,0.00,WeatherDisplay:10.37,2013-07-17 02:49:00,
2013-07-16 21:50:00,79.2,68.1,30.24,South,186,0.7,1.2,69,0.00,CLR,,0.00,WeatherDisplay:10.37,2013-07-17 02:50:00,
2013-07-16 21:52:00,79.2,68.6,30.24,SW,226,1.0,1.4,70,0.00,CLR,,0.00,WeatherDisplay:10.37,2013-07-17 02:52:00,
2013-07-16 21:53:00,79.0,68.4,30.24,SSW,210,1.1,2.3,70,0.00,CLR,,0.00,WeatherDisplay:10.37,2013-07-17 02:53:00,
2013-07-16 21:54:00,79.0,68.4,30.24,South,169,2.0,2.3,70,0.00,CLR,,0.00,WeatherDisplay:10.37,2013-07-17 02:54:00,
2013-07-16 21:55:00,79.1,68.5,30.24,SSW,192,2.2,3.5,70,0.00,CLR,,0.00,WeatherDisplay:10.37,2013-07-17 02:55:00,
2013-07-16 21:57:00,79.0,68.4,30.24,SSW,208,1.8,2.3,70,0.00,CLR,,0.00,WeatherDisplay:10.37,2013-07-17 02:57:00,
2013-07-16 21:58:00,79.0,68.4,30.24,SSW,203,1.9,3.5,70,0.00,CLR,,0.00,WeatherDisplay:10.37,2013-07-17 02:58:00,
2013-07-16 22:00:00,78.9,68.3,30.24,SW,223,1.9,2.9,70,0.00,CLR,,0.00,WeatherDisplay:10.37,2013-07-17 03:00:00,
2013-07-16 22:02:00,78.9,68.3,30.25,SSW,205,1.0,3.5,70,0.00,CLR,,0.00,WeatherDisplay:10.37,2013-07-17 03:02:00,
2013-07-16 22:03:00,78.8,68.2,30.24,SSW,213,1.4,1.9,70,0.00,CLR,,0.00,WeatherDisplay:10.37,2013-07-17 03:03:00,
2013-07-16 22:05:00,78.8,68.2,30.24,SSW,209,1.8,2.3,70,0.00,CLR,,0.00,WeatherDisplay:10.37,2013-07-17 03:05:00,
2013-07-16 22:07:00,78.8,68.2,30.24,SW,236,1.9,3.5,70,0.00,CLR,,0.00,WeatherDisplay:10.37,2013-07-17 03:07:00,
2013-07-16 22:08:00,78.8,68.2,30.25,SSW,210,2.4,4.3,70,0.00,CLR,,0.00,WeatherDisplay:10.37,2013-07-17 03:08:00,
2013-07-16 22:10:00,78.7,68.5,30.24,SW,229,1.8,2.3,71,0.00,CLR,,0.00,WeatherDisplay:10.37,2013-07-17 03:10:00,
2013-07-16 22:11:00,78.7,68.5,30.24,SW,217,1.9,2.9,71,0.00,CLR,,0.00,WeatherDisplay:10.37,2013-07-17 03:11:00,
2013-07-16 22:12:00,78.7,68.5,30.24,SW,232,1.9,3.5,71,0.00,CLR,,0.00,WeatherDisplay:10.37,2013-07-17 03:12:00,
2013-07-16 22:13:00,78.7,68.5,30.24,SW,223,2.4,3.5,71,0.00,CLR,,0.00,WeatherDisplay:10.37,2013-07-17 03:13:00,
2013-07-16 22:16:00,78.7,68.5,30.25,SW,222,2.4,3.5,71,0.00,CLR,,0.00,WeatherDisplay:10.37,2013-07-17 03:16:00,
2013-07-16 22:18:00,78.7,68.5,30.25,SW,217,1.7,3.5,71,0.00,CLR,,0.00,WeatherDisplay:10.37,2013-07-17 03:18:00,
2013-07-16 22:19:00,78.5,68.3,30.25,SSE,165,1.5,3.5,71,0.00,CLR,,0.00,WeatherDisplay:10.37,2013-07-17 03:19:00,
2013-07-16 22:21:00,78.5,68.3,30.25,South,171,0.2,1.2,71,0.00,CLR,,0.00,WeatherDisplay:10.37,2013-07-17 03:21:00,
2013-07-16 22:23:00,78.4,68.2,30.24,SSE,164,0.2,2.3,71,0.00,CLR,,0.00,WeatherDisplay:10.37,2013-07-17 03:23:00,
2013-07-16 22:24:00,78.4,68.2,30.24,SW,223,0.6,1.2,71,0.00,CLR,,0.00,WeatherDisplay:10.37,2013-07-17 03:24:00,
2013-07-16 22:26:00,78.4,68.2,30.24,SSW,200,0.0,0.0,71,0.00,CLR,,0.00,WeatherDisplay:10.37,2013-07-17 03:26:00,
2013-07-16 22:28:00,78.3,67.7,30.24,SSW,200,0.0,0.0,70,0.00,CLR,,0.00,WeatherDisplay:10.37,2013-07-17 03:28:00,
2013-07-16 22:29:00,78.1,67.5,30.24,SSW,200,0.0,0.0,70,0.00,CLR,,0.00,WeatherDisplay:10.37,2013-07-17 03:29:00,
2013-07-16 22:30:00,78.2,67.6,30.24,SSW,200,0.0,0.0,70,0.00,CLR,,0.00,WeatherDisplay:10.37,2013-07-17 03:30:00,
2013-07-16 22:31:00,78.1,67.5,30.24,SSW,200,0.0,0.0,70,0.00,CLR,,0.00,WeatherDisplay:10.37,2013-07-17 03:31:00,
2013-07-16 22:33:00,78.1,67.9,30.24,SSW,200,0.0,0.0,71,0.00,CLR,,0.00,WeatherDisplay:10.37,2013-07-17 03:33:00,
2013-07-16 22:34:00,78.0,67.8,30.24,SSW,200,0.0,0.0,71,0.00,CLR,,0.00,WeatherDisplay:10.37,2013-07-17 03:34:00,
2013-07-16 22:35:00,78.1,67.9,30.24,SSW,200,0.0,0.0,71,0.00,CLR,,0.00,WeatherDisplay:10.37,2013-07-17 03:35:00,
2013-07-16 22:36:00,78.0,67.8,30.24,SSW,200,0.0,0.0,71,0.00,CLR,,0.00,WeatherDisplay:10.37,2013-07-17 03:36:00,
2013-07-16 22:38:00,77.9,67.7,30.25,SSW,200,0.0,0.0,71,0.00,CLR,,0.00,WeatherDisplay:10.37,2013-07-17 03:38:00,
2013-07-16 22:39:00,77.8,67.6,30.25,SSW,200,0.0,0.0,71,0.00,CLR,,0.00,WeatherDisplay:10.37,2013-07-17 03:39:00,
2013-07-16 22:40:00,77.8,67.6,30.25,SSW,200,0.0,0.0,71,0.00,CLR,,0.00,WeatherDisplay:10.37,2013-07-17 03:40:00,
2013-07-16 22:41:00,77.7,67.5,30.25,SSW,200,0.0,0.0,71,0.00,CLR,,0.00,WeatherDisplay:10.37,2013-07-17 03:41:00,
2013-07-16 22:43:00,77.7,67.5,30.25,SSW,200,0.0,0.0,71,0.00,CLR,,0.00,WeatherDisplay:10.37,2013-07-17 03:43:00,
2013-07-16 22:44:00,77.4,67.3,30.25,SSW,200,0.0,0.0,71,0.00,CLR,,0.00,WeatherDisplay:10.37,2013-07-17 03:44:00,
2013-07-16 22:45:00,77.4,67.3,30.25,SSW,200,0.0,0.0,71,0.00,CLR,,0.00,WeatherDisplay:10.37,2013-07-17 03:45:00,
2013-07-16 22:46:00,77.4,67.3,30.25,SSW,200,0.0,0.0,71,0.00,CLR,,0.00,WeatherDisplay:10.37,2013-07-17 03:46:00,
2013-07-16 22:48:00,77.4,67.3,30.25,SSW,200,0.0,0.0,71,0.00,CLR,,0.00,WeatherDisplay:10.37,2013-07-17 03:48:00,
2013-07-16 22:50:00,77.2,67.5,30.25,SSW,200,0.0,0.0,72,0.00,CLR,,0.00,WeatherDisplay:10.37,2013-07-17 03:50:00,
2013-07-16 22:51:00,77.1,67.4,30.25,SSW,200,0.0,0.0,72,0.00,CLR,,0.00,WeatherDisplay:10.37,2013-07-17 03:51:00,
2013-07-16 22:53:00,77.0,67.3,30.25,SSW,200,0.0,0.0,72,0.00,CLR,,0.00,WeatherDisplay:10.37,2013-07-17 03:53:00,
2013-07-16 22:54:00,77.0,67.3,30.25,SSW,200,0.0,0.0,72,0.00,CLR,,0.00,WeatherDisplay:10.37,2013-07-17 03:54:00,
2013-07-16 22:55:00,77.0,67.3,30.25,SSW,200,0.0,0.0,72,0.00,CLR,,0.00,WeatherDisplay:10.37,2013-07-17 03:55:00,
2013-07-16 22:56:00,76.9,67.6,30.25,SSW,200,0.0,0.0,73,0.00,CLR,,0.00,WeatherDisplay:10.37,2013-07-17 03:56:00,
2013-07-16 22:58:00,76.9,67.6,30.25,SSW,200,0.0,0.0,73,0.00,CLR,,0.00,WeatherDisplay:10.37,2013-07-17 03:58:00,
2013-07-16 22:59:00,76.7,67.4,30.25,SSW,200,0.0,0.0,73,0.00,CLR,,0.00,WeatherDisplay:10.37,2013-07-17 03:59:00,
2013-07-16 23:00:00,76.8,67.5,30.25,SSW,200,0.0,0.0,73,0.00,CLR,,0.00,WeatherDisplay:10.37,2013-07-17 04:00:00,
2013-07-16 23:01:00,76.7,67.4,30.25,SSW,200,0.0,0.0,73,0.00,CLR,,0.00,WeatherDisplay:10.37,2013-07-17 04:01:00,
2013-07-16 23:06:00,76.5,67.6,30.25,SSW,200,0.0,0.0,74,0.00,CLR,,0.00,WeatherDisplay:10.37,2013-07-17 04:06:00,
2013-07-16 23:11:00,76.3,67.4,30.25,SSW,200,0.0,0.0,74,0.00,CLR,,0.00,WeatherDisplay:10.37,2013-07-17 04:11:00,
2013-07-16 23:16:00,76.1,67.2,30.25,SSW,200,0.0,0.0,74,0.00,CLR,,0.00,WeatherDisplay:10.37,2013-07-17 04:16:00,
2013-07-16 23:17:00,76.2,67.3,30.25,SSW,200,0.0,0.0,74,0.00,CLR,,0.00,WeatherDisplay:10.37,2013-07-17 04:17:00,
2013-07-16 23:21:00,76.0,67.1,30.25,SSW,200,0.0,0.0,74,0.00,CLR,,0.00,WeatherDisplay:10.37,2013-07-17 04:21:00,
2013-07-16 23:22:00,76.0,67.1,30.25,SSW,200,0.0,0.0,74,0.00,CLR,,0.00,WeatherDisplay:10.37,2013-07-17 04:22:00,
2013-07-16 23:26:00,75.8,67.3,30.26,SSW,200,0.0,0.0,75,0.00,CLR,,0.00,WeatherDisplay:10.37,2013-07-17 04:26:00,
2013-07-16 23:27:00,75.8,67.3,30.26,SSW,200,0.0,0.0,75,0.00,CLR,,0.00,WeatherDisplay:10.37,2013-07-17 04:27:00,
2013-07-16 23:28:00,75.8,67.3,30.26,SSW,200,0.0,0.0,75,0.00,CLR,,0.00,WeatherDisplay:10.37,2013-07-17 04:28:00,
2013-07-16 23:31:00,75.7,67.2,30.26,SW,229,0.3,0.3,75,0.00,CLR,,0.00,WeatherDisplay:10.37,2013-07-17 04:31:00,
2013-07-16 23:32:00,75.7,67.2,30.26,WSW,248,0.8,1.2,75,0.00,CLR,,0.00,WeatherDisplay:10.37,2013-07-17 04:32:00,
2013-07-16 23:33:00,75.7,67.6,30.26,SW,224,0.9,1.4,76,0.00,CLR,,0.00,WeatherDisplay:10.37,2013-07-17 04:33:00,
2013-07-16 23:36:00,75.7,67.6,30.26,WSW,239,0.8,2.3,76,0.00,CLR,,0.00,WeatherDisplay:10.37,2013-07-17 04:36:00,
2013-07-16 23:37:00,75.7,67.6,30.26,SW,224,1.5,1.5,76,0.00,CLR,,0.00,WeatherDisplay:10.37,2013-07-17 04:37:00,
2013-07-16 23:38:00,75.6,67.5,30.26,SW,233,1.4,2.3,76,0.00,CLR,,0.00,WeatherDisplay:10.37,2013-07-17 04:38:00,
2013-07-16 23:41:00,75.7,67.6,30.26,SW,236,0.0,0.6,76,0.00,CLR,,0.00,WeatherDisplay:10.37,2013-07-17 04:41:00,
2013-07-16 23:42:00,75.6,67.5,30.26,West,260,0.5,0.9,76,0.00,CLR,,0.00,WeatherDisplay:10.37,2013-07-17 04:42:00,
2013-07-16 23:43:00,75.7,68.0,30.26,SW,216,0.1,1.2,77,0.00,CLR,,0.00,WeatherDisplay:10.37,2013-07-17 04:43:00,
2013-07-16 23:44:00,75.6,67.5,30.26,SW,216,0.0,1.2,76,0.00,CLR,,0.00,WeatherDisplay:10.37,2013-07-17 04:44:00,
2013-07-16 23:46:00,75.6,67.5,30.26,SW,226,0.6,1.2,76,0.00,CLR,,0.00,WeatherDisplay:10.37,2013-07-17 04:46:00,
2013-07-16 23:47:00,75.7,68.0,30.26,WSW,246,1.0,2.3,77,0.00,CLR,,0.00,WeatherDisplay:10.37,2013-07-17 04:47:00,
2013-07-16 23:48:00,75.7,68.0,30.26,WSW,246,1.3,2.3,77,0.00,CLR,,0.00,WeatherDisplay:10.37,2013-07-17 04:48:00,
2013-07-16 23:49:00,75.6,67.9,30.26,WSW,240,0.8,1.2,77,0.00,CLR,,0.00,WeatherDisplay:10.37,2013-07-17 04:49:00,
2013-07-16 23:51:00,75.6,67.9,30.26,WSW,239,0.8,1.7,77,0.00,CLR,,0.00,WeatherDisplay:10.37,2013-07-17 04:51:00,
2013-07-16 23:53:00,75.7,68.0,30.26,SW,232,1.4,2.3,77,0.00,CLR,,0.00,WeatherDisplay:10.37,2013-07-17 04:53:00,
2013-07-16 23:54:00,75.4,67.7,30.26,WSW,241,1.7,2.3,77,0.00,CLR,,0.00,WeatherDisplay:10.37,2013-07-17 04:54:00,
2013-07-16 23:55:00,75.5,67.8,30.26,SW,230,1.4,2.3,77,0.00,CLR,,0.00,WeatherDisplay:10.37,2013-07-17 04:55:00,
2013-07-16 23:56:00,75.4,67.7,30.26,SW,227,1.6,3.5,77,0.00,CLR,,0.00,WeatherDisplay:10.37,2013-07-17 04:56:00,
2013-07-16 23:58:00,75.5,67.8,30.26,SW,229,1.4,2.3,77,0.00,CLR,,0.00,WeatherDisplay:10.37,2013-07-17 04:58:00,
2013-07-16 23:59:00,75.7,68.0,30.26,SW,219,1.4,2.3,77,0.00,CLR,,0.00,WeatherDisplay:10.37,2013-07-17 04:59:00,